OCN12 KLAS-EDDF

Flight info

Callsign OCN12
Flight time 10h 19m
Altitude 35000
Route GIDGT3 VERKN DCT PROMT Q88 ZAKRY DCT SNY DCT ONL/N0479F370 DCT KP84G DCT KP90K DCT SSM DCT MT DCT PEKRO/N0472F390 DCT HOIST/M082F390 DCT 56N050W 57N040W 57N030W 56N020W DCT ETARI/N0477F390 DCT MOGLO DCT NIBOG DCT BELOX L603 DOLAS DCT NAVPI DCT SOGPO DCT DIXAT DIXAT1A
Aircraft A333/H-SDE3GHIJ2J3J5M1RVWXY/LB2D1

Departure

Time 2026-05-07 04:48
Airport Harry Reid International Airport (KLAS)

Arrival

Time 2026-05-07 15:08
Airport Frankfurt Main Airport (EDDF)
Time Latitude Longitude Altitude Speed Heading
2026-05-07 04:31 36.08322 -115.13504 2068 ft 0 kts 239°
2026-05-07 04:40 36.08328 -115.13490 2096 ft 4 kts 239°
2026-05-07 04:40 36.08342 -115.13462 2096 ft 4 kts 239°
2026-05-07 04:40 36.08353 -115.13440 2096 ft 4 kts 213°
2026-05-07 04:40 36.08372 -115.13438 2096 ft 4 kts 137°
2026-05-07 04:41 36.08390 -115.13461 2096 ft 3 kts 135°
2026-05-07 04:41 36.08393 -115.13464 2096 ft 0 kts 135°
2026-05-07 04:43 36.08381 -115.13450 2096 ft 5 kts 135°
2026-05-07 04:43 36.08346 -115.13406 2096 ft 9 kts 138°
2026-05-07 04:43 36.08273 -115.13376 2095 ft 14 kts 178°
2026-05-07 04:44 36.08164 -115.13376 2093 ft 16 kts 180°
2026-05-07 04:44 36.08055 -115.13375 2093 ft 15 kts 180°
2026-05-07 04:44 36.07950 -115.13375 2093 ft 15 kts 180°
2026-05-07 04:44 36.07851 -115.13374 2093 ft 8 kts 171°
2026-05-07 04:45 36.07831 -115.13323 2092 ft 8 kts 97°
2026-05-07 04:45 36.07828 -115.13238 2090 ft 12 kts 91°
2026-05-07 04:45 36.07828 -115.13102 2086 ft 20 kts 89°
2026-05-07 04:45 36.07828 -115.12903 2073 ft 26 kts 90°
2026-05-07 04:46 36.07828 -115.12669 2068 ft 28 kts 90°
2026-05-07 04:46 36.07828 -115.12422 2061 ft 26 kts 89°
2026-05-07 04:46 36.07810 -115.12249 2056 ft 20 kts 118°
2026-05-07 04:46 36.07736 -115.12140 2054 ft 14 kts 150°
2026-05-07 04:47 36.07656 -115.12144 2054 ft 9 kts 224°
2026-05-07 04:47 36.07643 -115.12209 2053 ft 7 kts 268°
2026-05-07 04:47 36.07644 -115.12326 2056 ft 31 kts 270°
2026-05-07 04:47 36.07645 -115.12791 2071 ft 80 kts 270°
2026-05-07 04:48 36.07643 -115.13713 2096 ft 134 kts 270°
2026-05-07 04:48 36.07640 -115.15089 2122 ft 185 kts 270°
2026-05-07 04:48 36.07624 -115.16710 2773 ft 193 kts 269°
2026-05-07 04:48 36.07621 -115.18358 3705 ft 194 kts 270°
2026-05-07 04:49 36.07627 -115.20109 4235 ft 209 kts 270°
2026-05-07 04:49 36.07632 -115.21988 4400 ft 229 kts 270°
2026-05-07 04:49 36.07636 -115.24033 4552 ft 246 kts 270°
2026-05-07 04:49 36.07748 -115.26189 4841 ft 256 kts 284°
2026-05-07 04:50 36.08625 -115.28091 5212 ft 260 kts 319°
2026-05-07 04:50 36.10231 -115.29089 5679 ft 261 kts 344°
2026-05-07 04:50 36.12006 -115.29582 6180 ft 261 kts 349°
2026-05-07 04:50 36.13815 -115.29743 6656 ft 262 kts
2026-05-07 04:51 36.15515 -115.28985 7080 ft 266 kts 34°
2026-05-07 04:51 36.16770 -115.27257 7379 ft 276 kts 57°
2026-05-07 04:51 36.17647 -115.25119 7811 ft 281 kts 66°
2026-05-07 04:51 36.18359 -115.22860 8312 ft 282 kts 68°
2026-05-07 04:52 36.19053 -115.20580 8850 ft 284 kts 68°
2026-05-07 04:52 36.19562 -115.18207 9366 ft 288 kts 81°
2026-05-07 04:52 36.19667 -115.15722 9896 ft 290 kts 87°
2026-05-07 04:52 36.19664 -115.13204 10263 ft 298 kts 88°
2026-05-07 04:53 36.19651 -115.10615 10379 ft 311 kts 88°
2026-05-07 04:53 36.19642 -115.07882 10576 ft 324 kts 88°
2026-05-07 04:53 36.19636 -115.05023 10738 ft 337 kts 88°
2026-05-07 04:53 36.19633 -115.02061 10906 ft 349 kts 88°
2026-05-07 04:54 36.19630 -114.98998 11077 ft 361 kts 88°
2026-05-07 04:54 36.19628 -114.95878 11249 ft 372 kts 88°
2026-05-07 04:54 36.19624 -114.92647 11542 ft 378 kts 88°
2026-05-07 04:54 36.19620 -114.89378 11939 ft 380 kts 88°
2026-05-07 04:55 36.19615 -114.86086 12370 ft 382 kts 88°
2026-05-07 04:55 36.19609 -114.82784 12797 ft 383 kts 88°
2026-05-07 04:55 36.19603 -114.79482 13219 ft 385 kts 87°
2026-05-07 04:55 36.19596 -114.76156 13637 ft 387 kts 87°
2026-05-07 04:56 36.19589 -114.72807 13991 ft 389 kts 87°
2026-05-07 04:56 36.19580 -114.69449 14367 ft 390 kts 87°
2026-05-07 04:56 36.19573 -114.66085 14724 ft 392 kts 87°
2026-05-07 04:56 36.19566 -114.62704 15077 ft 394 kts 88°
2026-05-07 04:57 36.19558 -114.59304 15458 ft 395 kts 87°
2026-05-07 04:57 36.19550 -114.55900 15802 ft 396 kts 88°
2026-05-07 04:57 36.19543 -114.52520 16118 ft 398 kts 87°
2026-05-07 04:57 36.19533 -114.49074 16461 ft 400 kts 88°
2026-05-07 04:58 36.19520 -114.45616 16808 ft 401 kts 88°
2026-05-07 04:58 36.19506 -114.42160 17146 ft 403 kts 88°
2026-05-07 04:58 36.19491 -114.38677 17460 ft 404 kts 88°
2026-05-07 04:58 36.19476 -114.35192 17816 ft 405 kts 88°
2026-05-07 04:59 36.19460 -114.31686 18104 ft 408 kts 88°
2026-05-07 04:59 36.19448 -114.28168 18352 ft 409 kts 86°
2026-05-07 04:59 36.19681 -114.24708 18601 ft 408 kts 77°
2026-05-07 04:59 36.20499 -114.21362 18850 ft 406 kts 65°
2026-05-07 05:00 36.21673 -114.18181 19122 ft 406 kts 62°
2026-05-07 05:00 36.22918 -114.15023 19387 ft 408 kts 62°
2026-05-07 05:00 36.24171 -114.11859 19616 ft 410 kts 62°
2026-05-07 05:00 36.25422 -114.08681 19888 ft 411 kts 62°
2026-05-07 05:01 36.26673 -114.05490 20159 ft 412 kts 62°
2026-05-07 05:01 36.27925 -114.02286 20410 ft 414 kts 62°
2026-05-07 05:01 36.29179 -113.99066 20650 ft 415 kts 62°
2026-05-07 05:01 36.30438 -113.95830 20900 ft 417 kts 62°
2026-05-07 05:02 36.31698 -113.92588 21135 ft 418 kts 62°
2026-05-07 05:02 36.32943 -113.89378 21366 ft 419 kts 62°
2026-05-07 05:02 36.34212 -113.86104 21617 ft 421 kts 62°
2026-05-07 05:02 36.35481 -113.82826 21864 ft 422 kts 62°
2026-05-07 05:03 36.36753 -113.79537 22110 ft 423 kts 62°
2026-05-07 05:03 36.38029 -113.76234 22331 ft 425 kts 62°
2026-05-07 05:03 36.39312 -113.72909 22586 ft 427 kts 62°
2026-05-07 05:03 36.40597 -113.69577 22822 ft 428 kts 62°
2026-05-07 05:04 36.41888 -113.66226 23093 ft 430 kts 62°
2026-05-07 05:04 36.43179 -113.62870 23362 ft 431 kts 62°
2026-05-07 05:04 36.44483 -113.59497 23599 ft 433 kts 62°
2026-05-07 05:04 36.45792 -113.56120 23817 ft 435 kts 62°
2026-05-07 05:05 36.47104 -113.52731 24038 ft 436 kts 62°
2026-05-07 05:05 36.48421 -113.49326 24265 ft 437 kts 62°
2026-05-07 05:05 36.49738 -113.45919 24495 ft 438 kts 62°
2026-05-07 05:05 36.51043 -113.42540 24711 ft 439 kts 62°
2026-05-07 05:06 36.52368 -113.39102 24860 ft 442 kts 62°
2026-05-07 05:06 36.53702 -113.35641 25078 ft 443 kts 62°
2026-05-07 05:06 36.55033 -113.32178 25279 ft 444 kts 62°
2026-05-07 05:06 36.56368 -113.28705 25485 ft 445 kts 62°
2026-05-07 05:07 36.57706 -113.25219 25716 ft 446 kts 62°
2026-05-07 05:07 36.59045 -113.21728 25914 ft 448 kts 62°
2026-05-07 05:07 36.60389 -113.18217 26136 ft 449 kts 62°
2026-05-07 05:07 36.61733 -113.14704 26330 ft 450 kts 62°
2026-05-07 05:08 36.63082 -113.11175 26548 ft 451 kts 62°
2026-05-07 05:08 36.64413 -113.07689 26798 ft 452 kts 62°
2026-05-07 05:08 36.65764 -113.04145 27005 ft 453 kts 62°
2026-05-07 05:08 36.67118 -113.00591 27232 ft 455 kts 62°
2026-05-07 05:09 36.68473 -112.97029 27431 ft 456 kts 62°
2026-05-07 05:09 36.69836 -112.93443 27635 ft 457 kts 62°
2026-05-07 05:09 36.71198 -112.89854 27843 ft 459 kts 62°
2026-05-07 05:09 36.72563 -112.86253 28052 ft 460 kts 62°
2026-05-07 05:10 36.73931 -112.82642 28242 ft 461 kts 62°
2026-05-07 05:10 36.75303 -112.79015 28436 ft 462 kts 62°
2026-05-07 05:10 36.76676 -112.75381 28635 ft 464 kts 62°
2026-05-07 05:10 36.78055 -112.71728 28812 ft 465 kts 62°
2026-05-07 05:11 36.79433 -112.68070 29065 ft 464 kts 62°
2026-05-07 05:11 36.80787 -112.64474 29351 ft 463 kts 62°
2026-05-07 05:11 36.82153 -112.60839 29636 ft 462 kts 62°
2026-05-07 05:11 36.83531 -112.57170 29946 ft 461 kts 62°
2026-05-07 05:12 36.84890 -112.53549 30228 ft 460 kts 62°
2026-05-07 05:12 36.86285 -112.50009 30447 ft 459 kts 58°
2026-05-07 05:12 36.88023 -112.46633 30663 ft 456 kts 50°
2026-05-07 05:12 36.90088 -112.43710 30900 ft 453 kts 42°
2026-05-07 05:13 36.92503 -112.41206 31144 ft 450 kts 33°
2026-05-07 05:13 36.95145 -112.39108 31348 ft 449 kts 30°
2026-05-07 05:13 36.97840 -112.37125 31563 ft 449 kts 29°
2026-05-07 05:13 37.00541 -112.35158 31783 ft 449 kts 29°
2026-05-07 05:14 37.03237 -112.33190 32027 ft 448 kts 29°
2026-05-07 05:14 37.05924 -112.31222 32267 ft 448 kts 29°
2026-05-07 05:14 37.08616 -112.29245 32507 ft 447 kts 29°
2026-05-07 05:14 37.10394 -112.27938 32670 ft 447 kts 29°
2026-05-07 05:15 37.13073 -112.25966 32928 ft 446 kts 29°
2026-05-07 05:15 37.15748 -112.23995 33175 ft 446 kts 29°
2026-05-07 05:15 37.19290 -112.21382 33504 ft 445 kts 29°
2026-05-07 05:15 37.21089 -112.20053 33682 ft 445 kts 28°
2026-05-07 05:16 37.23762 -112.18077 33902 ft 445 kts 28°
2026-05-07 05:16 37.26425 -112.16107 34133 ft 444 kts 28°
2026-05-07 05:16 37.29089 -112.14136 34326 ft 444 kts 28°
2026-05-07 05:16 37.31750 -112.12164 34526 ft 444 kts 28°
2026-05-07 05:17 37.34411 -112.10184 34688 ft 445 kts 30°
2026-05-07 05:17 37.36969 -112.07978 34885 ft 447 kts 36°
2026-05-07 05:17 37.39247 -112.05372 35043 ft 450 kts 44°
2026-05-07 05:17 37.41280 -112.02348 35088 ft 454 kts 49°
2026-05-07 05:18 37.45092 -111.95976 35108 ft 456 kts 51°
2026-05-07 05:18 37.48815 -111.89487 35100 ft 457 kts 51°
2026-05-07 05:19 37.52136 -111.82599 35095 ft 461 kts 57°
2026-05-07 05:19 37.55259 -111.75524 35062 ft 462 kts 57°
2026-05-07 05:20 37.58347 -111.68408 35041 ft 462 kts 57°
2026-05-07 05:20 37.61415 -111.61332 35043 ft 462 kts 57°
2026-05-07 05:21 37.66049 -111.50650 35054 ft 462 kts 57°
2026-05-07 05:22 37.69138 -111.43518 35041 ft 462 kts 57°
2026-05-07 05:22 37.72224 -111.36375 35052 ft 462 kts 58°
2026-05-07 05:23 37.75282 -111.29279 35048 ft 462 kts 58°
2026-05-07 05:23 37.78360 -111.22121 35052 ft 463 kts 58°
2026-05-07 05:24 37.81433 -111.14959 35059 ft 463 kts 58°
2026-05-07 05:24 37.84506 -111.07783 35058 ft 463 kts 58°
2026-05-07 05:25 37.87571 -111.00611 35058 ft 464 kts 58°
2026-05-07 05:25 37.90619 -110.93460 35065 ft 464 kts 57°
2026-05-07 05:26 37.93700 -110.86211 35068 ft 465 kts 57°
2026-05-07 05:26 37.96764 -110.78989 35082 ft 465 kts 57°
2026-05-07 05:27 37.99807 -110.71807 35084 ft 466 kts 58°
2026-05-07 05:27 38.02868 -110.64558 35083 ft 466 kts 58°
2026-05-07 05:28 38.05924 -110.57304 35089 ft 466 kts 58°
2026-05-07 05:28 38.08978 -110.50037 35089 ft 466 kts 58°
2026-05-07 05:29 38.12031 -110.42760 35093 ft 466 kts 58°
2026-05-07 05:29 38.15076 -110.35487 35094 ft 466 kts 58°
2026-05-07 05:30 38.18121 -110.28193 35100 ft 467 kts 58°
2026-05-07 05:30 38.21139 -110.20947 35104 ft 467 kts 58°
2026-05-07 05:31 38.24176 -110.13638 35114 ft 467 kts 58°
2026-05-07 05:31 38.27205 -110.06332 35112 ft 467 kts 58°
2026-05-07 05:32 38.30216 -109.98976 35108 ft 468 kts 58°
2026-05-07 05:32 38.33180 -109.91591 35118 ft 469 kts 59°
2026-05-07 05:33 38.36121 -109.84230 35119 ft 469 kts 59°
2026-05-07 05:33 38.39082 -109.76820 35123 ft 469 kts 59°
2026-05-07 05:34 38.42036 -109.69419 35122 ft 469 kts 59°
2026-05-07 05:34 38.44990 -109.62001 35121 ft 468 kts 59°
2026-05-07 05:35 38.47936 -109.54581 35125 ft 469 kts 59°
2026-05-07 05:35 38.50879 -109.47157 35132 ft 469 kts 59°
2026-05-07 05:36 38.53821 -109.39714 35133 ft 469 kts 59°
2026-05-07 05:36 38.56754 -109.32279 35139 ft 468 kts 59°
2026-05-07 05:37 38.59682 -109.24838 35139 ft 468 kts 59°
2026-05-07 05:37 38.62606 -109.17386 35141 ft 469 kts 59°
2026-05-07 05:38 38.65505 -109.09982 35161 ft 469 kts 59°
2026-05-07 05:38 38.68423 -109.02509 35153 ft 469 kts 59°
2026-05-07 05:39 38.71342 -108.95018 35161 ft 470 kts 59°
2026-05-07 05:39 38.74262 -108.87504 35164 ft 470 kts 59°
2026-05-07 05:40 38.77176 -108.79985 35162 ft 470 kts 59°
2026-05-07 05:40 38.80068 -108.72508 35166 ft 470 kts 59°
2026-05-07 05:41 38.82969 -108.64987 35180 ft 470 kts 59°
2026-05-07 05:41 38.85870 -108.57455 35191 ft 471 kts 59°
2026-05-07 05:42 38.88765 -108.49920 35202 ft 471 kts 59°
2026-05-07 05:42 38.91674 -108.42400 35238 ft 470 kts 59°
2026-05-07 05:43 38.94595 -108.34862 35214 ft 471 kts 59°
2026-05-07 05:43 38.97512 -108.27313 35203 ft 471 kts 59°
2026-05-07 05:44 39.00403 -108.19804 35225 ft 471 kts 59°
2026-05-07 05:44 39.03308 -108.12240 35233 ft 472 kts 59°
2026-05-07 05:45 39.06212 -108.04660 35229 ft 472 kts 59°
2026-05-07 05:45 39.09110 -107.97075 35226 ft 472 kts 59°
2026-05-07 05:46 39.11981 -107.89539 35212 ft 472 kts 59°
2026-05-07 05:46 39.14870 -107.81940 35228 ft 472 kts 59°
2026-05-07 05:47 39.17753 -107.74340 35257 ft 472 kts 59°
2026-05-07 05:47 39.20634 -107.66724 35232 ft 473 kts 59°
2026-05-07 05:48 39.23511 -107.59098 35232 ft 473 kts 59°
2026-05-07 05:48 39.26389 -107.51450 35233 ft 473 kts 59°
2026-05-07 05:49 39.29260 -107.43801 35229 ft 473 kts 59°
2026-05-07 05:49 39.32110 -107.36190 35236 ft 473 kts 59°
2026-05-07 05:50 39.34969 -107.28534 35229 ft 473 kts 59°
2026-05-07 05:50 39.37833 -107.20863 35237 ft 473 kts 58°
2026-05-07 05:51 39.40934 -107.13386 35261 ft 470 kts 56°
2026-05-07 05:51 39.44161 -107.06077 35277 ft 470 kts 55°
2026-05-07 05:52 39.47402 -106.98711 35291 ft 470 kts 56°
2026-05-07 05:52 39.50608 -106.91330 35302 ft 470 kts 56°
2026-05-07 05:53 39.53800 -106.83927 35265 ft 470 kts 56°
2026-05-07 05:53 39.56961 -106.76569 35272 ft 470 kts 56°
2026-05-07 05:54 39.60141 -106.69151 35285 ft 470 kts 56°
2026-05-07 05:54 39.63319 -106.61726 35260 ft 471 kts 56°
2026-05-07 05:55 39.66495 -106.54284 35264 ft 471 kts 56°
2026-05-07 05:55 39.69646 -106.46884 35264 ft 471 kts 56°
2026-05-07 05:56 39.72282 -106.40681 35271 ft 471 kts 56°
2026-05-07 05:56 39.75967 -106.31993 35279 ft 472 kts 56°
2026-05-07 05:57 39.78623 -106.25720 35279 ft 473 kts 56°
2026-05-07 05:57 39.81771 -106.18250 35272 ft 473 kts 56°
2026-05-07 05:58 39.84935 -106.10725 35272 ft 474 kts 56°
2026-05-07 05:58 39.88097 -106.03191 35278 ft 474 kts 56°
2026-05-07 05:59 39.91232 -105.95702 35276 ft 473 kts 56°
2026-05-07 05:59 39.94375 -105.88179 35260 ft 472 kts 56°
2026-05-07 06:00 39.97507 -105.80666 35258 ft 472 kts 57°
2026-05-07 06:00 40.00642 -105.73125 35228 ft 472 kts 57°
2026-05-07 06:01 40.03753 -105.65627 35231 ft 472 kts 57°
2026-05-07 06:01 40.06870 -105.58087 35162 ft 470 kts 56°
2026-05-07 06:02 40.09967 -105.50577 35164 ft 468 kts 57°
2026-05-07 06:02 40.13061 -105.43069 35136 ft 469 kts 57°
2026-05-07 06:03 40.16148 -105.35556 35127 ft 469 kts 57°
2026-05-07 06:03 40.19210 -105.28079 35154 ft 469 kts 57°
2026-05-07 06:04 40.22290 -105.20534 35128 ft 471 kts 57°
2026-05-07 06:04 40.25371 -105.12975 35129 ft 471 kts 57°
2026-05-07 06:05 40.28450 -105.05402 35132 ft 471 kts 57°
2026-05-07 06:05 40.31522 -104.97826 35151 ft 471 kts 57°
2026-05-07 06:06 40.34595 -104.90228 35165 ft 471 kts 57°
2026-05-07 06:06 40.37665 -104.82619 35139 ft 472 kts 57°
2026-05-07 06:07 40.40737 -104.74986 35119 ft 472 kts 57°
2026-05-07 06:07 40.43782 -104.67401 35124 ft 473 kts 57°
2026-05-07 06:08 40.46844 -104.59751 35118 ft 473 kts 57°
2026-05-07 06:08 40.49901 -104.52097 35122 ft 473 kts 57°
2026-05-07 06:09 40.52955 -104.44430 35143 ft 473 kts 57°
2026-05-07 06:09 40.55983 -104.36809 35177 ft 473 kts 57°
2026-05-07 06:10 40.59024 -104.29135 35175 ft 473 kts 57°
2026-05-07 06:10 40.62066 -104.21439 35195 ft 473 kts 57°
2026-05-07 06:11 40.65098 -104.13742 35202 ft 474 kts 57°
2026-05-07 06:11 40.68128 -104.06042 35169 ft 474 kts 57°
2026-05-07 06:12 40.71158 -103.98318 35171 ft 474 kts 57°
2026-05-07 06:12 40.74159 -103.90649 35127 ft 474 kts 57°
2026-05-07 06:13 40.77179 -103.82908 35179 ft 474 kts 57°
2026-05-07 06:13 40.80195 -103.75158 35103 ft 475 kts 57°
2026-05-07 06:14 40.83206 -103.67400 35097 ft 475 kts 57°
2026-05-07 06:14 40.86215 -103.59628 35096 ft 475 kts 57°
2026-05-07 06:15 40.89217 -103.51853 35090 ft 475 kts 57°
2026-05-07 06:15 40.92216 -103.44063 35086 ft 475 kts 57°
2026-05-07 06:16 40.95192 -103.36314 35085 ft 475 kts 57°
2026-05-07 06:16 40.98184 -103.28503 35087 ft 475 kts 57°
2026-05-07 06:17 41.01171 -103.20684 35085 ft 475 kts 57°
2026-05-07 06:17 41.04151 -103.12863 35101 ft 476 kts 57°
2026-05-07 06:18 41.07112 -103.05071 35032 ft 477 kts 57°
2026-05-07 06:18 41.10078 -102.97194 35036 ft 478 kts 58°
2026-05-07 06:19 41.12885 -102.89184 35037 ft 479 kts 59°
2026-05-07 06:19 41.15623 -102.81123 35035 ft 479 kts 59°
2026-05-07 06:20 41.18366 -102.73056 35040 ft 479 kts 59°
2026-05-07 06:20 41.21114 -102.65001 35038 ft 479 kts 59°
2026-05-07 06:21 41.23869 -102.56924 35044 ft 479 kts 59°
2026-05-07 06:21 41.26601 -102.48892 35039 ft 480 kts 59°
2026-05-07 06:22 41.29349 -102.40790 35050 ft 480 kts 59°
2026-05-07 06:22 41.33451 -102.28642 35057 ft 479 kts 59°
2026-05-07 06:23 41.36164 -102.20583 35050 ft 480 kts 59°
2026-05-07 06:23 41.38891 -102.12459 35044 ft 480 kts 59°
2026-05-07 06:24 41.41594 -102.04378 35045 ft 480 kts 59°
2026-05-07 06:24 41.44306 -101.96248 35042 ft 479 kts 59°
2026-05-07 06:25 41.47011 -101.88115 35042 ft 479 kts 59°
2026-05-07 06:25 41.49714 -101.79968 35042 ft 479 kts 59°
2026-05-07 06:26 41.52394 -101.71864 35032 ft 480 kts 59°
2026-05-07 06:26 41.55080 -101.63717 35037 ft 480 kts 59°
2026-05-07 06:27 41.57762 -101.55557 35032 ft 479 kts 59°
2026-05-07 06:27 41.60435 -101.47404 35029 ft 479 kts 59°
2026-05-07 06:28 41.63105 -101.39232 35051 ft 479 kts 59°
2026-05-07 06:28 41.65768 -101.31059 35024 ft 480 kts 59°
2026-05-07 06:29 41.68413 -101.22916 35021 ft 480 kts 59°
2026-05-07 06:29 41.71072 -101.14702 35021 ft 480 kts 59°
2026-05-07 06:30 41.73710 -101.06531 35024 ft 480 kts 59°
2026-05-07 06:30 41.76356 -100.98312 35016 ft 481 kts 59°
2026-05-07 06:31 41.78999 -100.90074 35008 ft 481 kts 59°
2026-05-07 06:31 41.81634 -100.81839 35004 ft 481 kts 59°
2026-05-07 06:32 41.84267 -100.73585 34991 ft 481 kts 59°
2026-05-07 06:32 41.86894 -100.65323 34985 ft 481 kts 59°
2026-05-07 06:33 41.89498 -100.57106 35016 ft 481 kts 59°
2026-05-07 06:33 41.92118 -100.48818 34982 ft 482 kts 59°
2026-05-07 06:34 41.94720 -100.40560 34984 ft 483 kts 59°
2026-05-07 06:34 41.97329 -100.32251 34990 ft 483 kts 59°
2026-05-07 06:35 41.99935 -100.23925 35002 ft 483 kts 59°
2026-05-07 06:35 42.02538 -100.15591 35006 ft 484 kts 59°
2026-05-07 06:36 42.05150 -100.07201 34999 ft 486 kts 59°
2026-05-07 06:36 42.07734 -99.98866 34999 ft 486 kts 60°
2026-05-07 06:37 42.10338 -99.90439 34997 ft 486 kts 60°
2026-05-07 06:37 42.12929 -99.82034 35026 ft 486 kts 60°
2026-05-07 06:38 42.15085 -99.75022 35002 ft 488 kts 60°
2026-05-07 06:38 42.18110 -99.65147 35010 ft 489 kts 60°
2026-05-07 06:39 42.20696 -99.56669 34995 ft 489 kts 60°
2026-05-07 06:39 42.22848 -99.49598 35018 ft 489 kts 60°
2026-05-07 06:40 42.25424 -99.41107 35016 ft 490 kts 60°
2026-05-07 06:40 42.28007 -99.32570 35010 ft 491 kts 61°
2026-05-07 06:41 42.30571 -99.24063 35009 ft 491 kts 61°
2026-05-07 06:41 42.33141 -99.15511 35006 ft 491 kts 61°
2026-05-07 06:42 42.35708 -99.06940 35034 ft 492 kts 61°
2026-05-07 06:42 42.38280 -98.98326 34998 ft 494 kts 61°
2026-05-07 06:43 42.40850 -98.89685 34987 ft 495 kts 61°
2026-05-07 06:43 42.43393 -98.81107 34981 ft 495 kts 61°
2026-05-07 06:44 42.45952 -98.72445 34980 ft 495 kts 61°
2026-05-07 06:44 42.48655 -98.63869 35054 ft 493 kts 58°
2026-05-07 06:45 42.50131 -98.59679 35224 ft 492 kts 57°
2026-05-07 06:45 42.51636 -98.55511 35400 ft 492 kts 57°
2026-05-07 06:45 42.53147 -98.51341 35523 ft 493 kts 57°
2026-05-07 06:45 42.54659 -98.47146 35670 ft 495 kts 57°
2026-05-07 06:46 42.56141 -98.42997 35835 ft 496 kts 58°
2026-05-07 06:46 42.57636 -98.38778 35950 ft 497 kts 58°
2026-05-07 06:46 42.59129 -98.34539 36097 ft 498 kts 58°
2026-05-07 06:46 42.60627 -98.30273 36151 ft 502 kts 58°
2026-05-07 06:47 42.63632 -98.21683 36351 ft 504 kts 59°
2026-05-07 06:47 42.65135 -98.17370 36509 ft 505 kts 59°
2026-05-07 06:47 42.66635 -98.13062 36621 ft 506 kts 59°
2026-05-07 06:48 42.69652 -98.04382 36883 ft 507 kts 59°
2026-05-07 06:48 42.71156 -98.00044 36994 ft 508 kts 59°
2026-05-07 06:48 42.72666 -97.95686 37059 ft 511 kts 59°
2026-05-07 06:49 42.75683 -97.86957 37048 ft 513 kts 60°
2026-05-07 06:49 42.78711 -97.78163 37034 ft 512 kts 60°
2026-05-07 06:50 42.81731 -97.69363 37040 ft 512 kts 60°
2026-05-07 06:50 42.84730 -97.60600 37038 ft 512 kts 60°
2026-05-07 06:51 42.87747 -97.51762 37040 ft 514 kts 60°
2026-05-07 06:51 42.90741 -97.42961 36994 ft 515 kts 60°
2026-05-07 06:52 42.93750 -97.34082 37001 ft 515 kts 60°
2026-05-07 06:52 42.96750 -97.25199 37004 ft 515 kts 60°
2026-05-07 06:53 42.99746 -97.16304 37015 ft 515 kts 60°
2026-05-07 06:53 43.02735 -97.07398 37018 ft 514 kts 60°
2026-05-07 06:54 43.05700 -96.98533 37017 ft 511 kts 60°
2026-05-07 06:54 43.08649 -96.89688 37022 ft 511 kts 60°
2026-05-07 06:55 43.11577 -96.80882 37016 ft 512 kts 60°
2026-05-07 06:55 43.14530 -96.71973 37014 ft 514 kts 60°
2026-05-07 06:56 43.17483 -96.63030 37010 ft 515 kts 61°
2026-05-07 06:56 43.20426 -96.54086 37012 ft 515 kts 61°
2026-05-07 06:57 43.23364 -96.45127 37026 ft 515 kts 61°
2026-05-07 06:57 43.26288 -96.36185 37026 ft 517 kts 61°
2026-05-07 06:58 43.29219 -96.27187 37013 ft 516 kts 61°
2026-05-07 06:58 43.32141 -96.18188 37008 ft 515 kts 61°
2026-05-07 06:59 43.35056 -96.09182 37004 ft 515 kts 61°
2026-05-07 06:59 43.37964 -96.00167 37002 ft 517 kts 62°
2026-05-07 07:00 43.40878 -95.91104 37007 ft 518 kts 62°
2026-05-07 07:00 43.43773 -95.82065 37011 ft 518 kts 62°
2026-05-07 07:01 43.46673 -95.72979 37020 ft 518 kts 62°
2026-05-07 07:01 43.49568 -95.63882 37046 ft 520 kts 62°
2026-05-07 07:02 43.52461 -95.54755 37039 ft 519 kts 62°
2026-05-07 07:02 43.55343 -95.45633 37040 ft 519 kts 62°
2026-05-07 07:03 43.58220 -95.36494 37041 ft 519 kts 62°
2026-05-07 07:03 43.61092 -95.27340 37025 ft 520 kts 63°
2026-05-07 07:04 43.63942 -95.18226 37014 ft 520 kts 63°
2026-05-07 07:04 43.66811 -95.09016 37008 ft 520 kts 63°
2026-05-07 07:05 43.69663 -94.99828 37009 ft 520 kts 63°
2026-05-07 07:05 43.72495 -94.90676 37011 ft 521 kts 63°
2026-05-07 07:06 43.75339 -94.81450 37017 ft 520 kts 63°
2026-05-07 07:06 43.78167 -94.72243 37032 ft 520 kts 63°
2026-05-07 07:07 43.80986 -94.63033 37030 ft 520 kts 63°
2026-05-07 07:07 43.83803 -94.53797 37024 ft 520 kts 64°
2026-05-07 07:08 43.86599 -94.44598 37025 ft 521 kts 64°
2026-05-07 07:08 43.89408 -94.35323 37030 ft 521 kts 64°
2026-05-07 07:09 43.92206 -94.26046 37037 ft 521 kts 64°
2026-05-07 07:09 43.94998 -94.16761 37053 ft 521 kts 64°
2026-05-07 07:10 43.97781 -94.07469 37047 ft 520 kts 64°
2026-05-07 07:10 44.00535 -93.98164 37043 ft 520 kts 65°
2026-05-07 07:11 44.03101 -93.88826 37038 ft 520 kts 66°
2026-05-07 07:11 44.05618 -93.79386 37042 ft 521 kts 67°
2026-05-07 07:12 44.08137 -93.69944 37048 ft 521 kts 67°
2026-05-07 07:12 44.10663 -93.60502 37044 ft 521 kts 67°
2026-05-07 07:13 44.13192 -93.51032 37045 ft 521 kts 67°
2026-05-07 07:13 44.15710 -93.41571 37020 ft 521 kts 67°
2026-05-07 07:14 44.18205 -93.32154 37031 ft 521 kts 67°
2026-05-07 07:14 44.20701 -93.22695 37017 ft 519 kts 67°
2026-05-07 07:15 44.23181 -93.13257 37024 ft 519 kts 67°
2026-05-07 07:15 44.25657 -93.03802 37042 ft 519 kts 68°
2026-05-07 07:16 44.28129 -92.94320 37038 ft 520 kts 68°
2026-05-07 07:16 44.30597 -92.84819 37035 ft 520 kts 68°
2026-05-07 07:17 44.33039 -92.75376 37041 ft 520 kts 68°
2026-05-07 07:17 44.35483 -92.65887 37040 ft 520 kts 68°
2026-05-07 07:18 44.37930 -92.56353 37027 ft 521 kts 68°
2026-05-07 07:18 44.40370 -92.46803 37031 ft 521 kts 68°
2026-05-07 07:19 44.42794 -92.37276 37023 ft 519 kts 68°
2026-05-07 07:19 44.45209 -92.27745 37027 ft 519 kts 69°
2026-05-07 07:20 44.47615 -92.18213 37022 ft 519 kts 69°
2026-05-07 07:20 44.50001 -92.08720 37030 ft 520 kts 69°
2026-05-07 07:21 44.52392 -91.99166 37028 ft 520 kts 69°
2026-05-07 07:21 44.54378 -91.91202 37032 ft 519 kts 69°
2026-05-07 07:22 44.56757 -91.81630 37031 ft 520 kts 69°
2026-05-07 07:22 44.59130 -91.72035 37025 ft 520 kts 69°
2026-05-07 07:23 44.61500 -91.62414 37030 ft 520 kts 69°
2026-05-07 07:23 44.63851 -91.52829 37026 ft 518 kts 69°
2026-05-07 07:24 44.66177 -91.43305 37019 ft 519 kts 69°
2026-05-07 07:24 44.68515 -91.33696 37019 ft 519 kts 70°
2026-05-07 07:25 44.72004 -91.19275 37014 ft 519 kts 70°
2026-05-07 07:26 44.74320 -91.09648 37022 ft 520 kts 70°
2026-05-07 07:26 44.76631 -91.00005 37025 ft 520 kts 70°
2026-05-07 07:27 44.78936 -90.90344 37025 ft 520 kts 70°
2026-05-07 07:27 44.81221 -90.80726 37026 ft 520 kts 70°
2026-05-07 07:28 44.83513 -90.71035 37028 ft 521 kts 70°
2026-05-07 07:28 44.85797 -90.61338 37028 ft 522 kts 70°
2026-05-07 07:29 44.88079 -90.51606 37040 ft 522 kts 70°
2026-05-07 07:29 44.90332 -90.41952 37021 ft 522 kts 70°
2026-05-07 07:30 44.92596 -90.32213 37018 ft 522 kts 71°
2026-05-07 07:30 44.94853 -90.22457 37018 ft 523 kts 71°
2026-05-07 07:31 44.97105 -90.12678 37023 ft 523 kts 71°
2026-05-07 07:31 44.99347 -90.02901 37030 ft 523 kts 71°
2026-05-07 07:32 45.01778 -89.93229 37027 ft 521 kts 67°
2026-05-07 07:32 45.04468 -89.83712 37026 ft 521 kts 66°
2026-05-07 07:33 45.07159 -89.74248 37025 ft 521 kts 67°
2026-05-07 07:33 45.09822 -89.64706 37026 ft 521 kts 67°
2026-05-07 07:34 45.12465 -89.55121 37027 ft 521 kts 67°
2026-05-07 07:34 45.15091 -89.45536 37022 ft 521 kts 67°
2026-05-07 07:35 45.17706 -89.35957 36994 ft 521 kts 67°
2026-05-07 07:35 45.20300 -89.26423 36986 ft 521 kts 68°
2026-05-07 07:36 45.22894 -89.16850 36981 ft 519 kts 68°
2026-05-07 07:36 45.25486 -89.07250 36982 ft 520 kts 68°
2026-05-07 07:37 45.28065 -88.97659 37022 ft 520 kts 68°
2026-05-07 07:37 45.30622 -88.88110 37015 ft 520 kts 68°
2026-05-07 07:38 45.33186 -88.78498 37015 ft 521 kts 68°
2026-05-07 07:38 45.35749 -88.68850 37012 ft 521 kts 68°
2026-05-07 07:39 45.38306 -88.59184 37018 ft 521 kts 68°
2026-05-07 07:39 45.40826 -88.49619 37007 ft 518 kts 68°
2026-05-07 07:40 45.43350 -88.40000 37007 ft 519 kts 68°
2026-05-07 07:40 45.45871 -88.30355 37003 ft 520 kts 68°
2026-05-07 07:41 45.48391 -88.20674 37000 ft 520 kts 68°
2026-05-07 07:41 45.50887 -88.11042 37001 ft 520 kts 68°
2026-05-07 07:42 45.53387 -88.01355 36998 ft 521 kts 69°
2026-05-07 07:42 45.55889 -87.91622 37001 ft 522 kts 69°
2026-05-07 07:43 45.58379 -87.81894 37002 ft 521 kts 69°
2026-05-07 07:43 45.60852 -87.72191 37005 ft 520 kts 69°
2026-05-07 07:44 45.63317 -87.62479 37009 ft 520 kts 69°
2026-05-07 07:44 45.65779 -87.52739 37010 ft 521 kts 69°
2026-05-07 07:45 45.68219 -87.43042 37008 ft 521 kts 69°
2026-05-07 07:45 45.70665 -87.33281 37010 ft 521 kts 69°
2026-05-07 07:46 45.73103 -87.23512 37007 ft 521 kts 69°
2026-05-07 07:46 45.75539 -87.13706 36980 ft 521 kts 69°
2026-05-07 07:47 45.77957 -87.03930 36995 ft 520 kts 69°
2026-05-07 07:47 45.80356 -86.94193 36985 ft 520 kts 69°
2026-05-07 07:48 45.82755 -86.84408 36976 ft 520 kts 69°
2026-05-07 07:48 45.85151 -86.74598 36993 ft 521 kts 69°
2026-05-07 07:49 45.87541 -86.64771 36993 ft 522 kts 70°
2026-05-07 07:49 45.89921 -86.54936 36992 ft 522 kts 70°
2026-05-07 07:50 45.92295 -86.45088 36994 ft 521 kts 70°
2026-05-07 07:50 45.94655 -86.35250 36991 ft 520 kts 70°
2026-05-07 07:51 45.97007 -86.25404 36982 ft 520 kts 70°
2026-05-07 07:51 45.99347 -86.15565 36967 ft 520 kts 70°
2026-05-07 07:52 46.01680 -86.05711 36968 ft 520 kts 70°
2026-05-07 07:52 46.03992 -85.95903 36966 ft 521 kts 70°
2026-05-07 07:53 46.06318 -85.85987 36977 ft 522 kts 70°
2026-05-07 07:53 46.08641 -85.76044 36986 ft 523 kts 70°
2026-05-07 07:54 46.10948 -85.66122 36974 ft 521 kts 70°
2026-05-07 07:54 46.13225 -85.56282 36968 ft 520 kts 70°
2026-05-07 07:55 46.15505 -85.46386 36966 ft 520 kts 71°
2026-05-07 07:55 46.17781 -85.36465 36960 ft 520 kts 71°
2026-05-07 07:56 46.20045 -85.26550 36985 ft 520 kts 71°
2026-05-07 07:56 46.22302 -85.16616 36987 ft 521 kts 71°
2026-05-07 07:57 46.24541 -85.06717 36986 ft 521 kts 71°
2026-05-07 07:57 46.26785 -84.96753 36996 ft 521 kts 71°
2026-05-07 07:58 46.29016 -84.86796 36981 ft 519 kts 71°
2026-05-07 07:58 46.31231 -84.76866 36974 ft 519 kts 71°
2026-05-07 07:59 46.33447 -84.66884 36974 ft 521 kts 71°
2026-05-07 07:59 46.35654 -84.56896 36973 ft 521 kts 71°
2026-05-07 08:00 46.37842 -84.46947 36967 ft 521 kts 71°
2026-05-07 08:00 46.40032 -84.36940 36979 ft 521 kts 72°
2026-05-07 08:01 46.42974 -84.27387 36969 ft 519 kts 59°
2026-05-07 08:01 46.46568 -84.18335 36955 ft 517 kts 57°
2026-05-07 08:02 46.50242 -84.09449 36954 ft 516 kts 57°
2026-05-07 08:02 46.53340 -84.01952 36960 ft 516 kts 57°
2026-05-07 08:03 46.56997 -83.93027 36959 ft 517 kts 58°
2026-05-07 08:03 46.60655 -83.84036 36965 ft 518 kts 58°
2026-05-07 08:04 46.64316 -83.74997 36970 ft 518 kts 58°
2026-05-07 08:04 46.67968 -83.65954 36969 ft 518 kts 58°
2026-05-07 08:05 46.71616 -83.56890 36972 ft 518 kts 58°
2026-05-07 08:05 46.75257 -83.47814 36966 ft 518 kts 58°
2026-05-07 08:06 46.78875 -83.38768 36973 ft 519 kts 58°
2026-05-07 08:06 46.82498 -83.29681 36964 ft 517 kts 58°
2026-05-07 08:07 46.86103 -83.20605 36966 ft 516 kts 58°
2026-05-07 08:07 46.89701 -83.11516 36963 ft 516 kts 58°
2026-05-07 08:08 46.93295 -83.02409 36954 ft 516 kts 58°
2026-05-07 08:08 46.96888 -82.93274 36963 ft 518 kts 59°
2026-05-07 08:09 47.00465 -82.84149 36952 ft 516 kts 59°
2026-05-07 08:09 47.04008 -82.75078 36952 ft 516 kts 59°
2026-05-07 08:10 47.07571 -82.65927 36948 ft 516 kts 59°
2026-05-07 08:10 47.11123 -82.56772 36951 ft 516 kts 59°
2026-05-07 08:11 47.14660 -82.47625 36955 ft 517 kts 59°
2026-05-07 08:11 47.18202 -82.38437 36946 ft 516 kts 59°
2026-05-07 08:12 47.21734 -82.29240 36946 ft 516 kts 59°
2026-05-07 08:12 47.25250 -82.20054 36944 ft 516 kts 59°
2026-05-07 08:13 47.28767 -82.10833 36934 ft 516 kts 59°
2026-05-07 08:13 47.32261 -82.01642 36950 ft 517 kts 60°
2026-05-07 08:14 47.35767 -81.92389 36936 ft 515 kts 60°
2026-05-07 08:14 47.39258 -81.83142 36933 ft 515 kts 60°
2026-05-07 08:15 47.42741 -81.73885 36930 ft 515 kts 60°
2026-05-07 08:15 47.46213 -81.64625 36930 ft 515 kts 60°
2026-05-07 08:16 47.49685 -81.55333 36931 ft 516 kts 60°
2026-05-07 08:16 47.53125 -81.46095 36922 ft 515 kts 60°
2026-05-07 08:17 47.56577 -81.36794 36916 ft 515 kts 60°
2026-05-07 08:17 47.60017 -81.27488 36917 ft 515 kts 60°
2026-05-07 08:18 47.63454 -81.18160 36914 ft 515 kts 60°
2026-05-07 08:18 47.66880 -81.08831 36927 ft 515 kts 60°
2026-05-07 08:19 47.70295 -80.99496 36903 ft 514 kts 60°
2026-05-07 08:19 47.73675 -80.90225 36903 ft 513 kts 61°
2026-05-07 08:20 47.77068 -80.80885 36899 ft 513 kts 61°
2026-05-07 08:20 47.80456 -80.71529 36899 ft 513 kts 61°
2026-05-07 08:21 47.83834 -80.62164 36886 ft 514 kts 61°
2026-05-07 08:21 47.87206 -80.52784 36889 ft 513 kts 61°
2026-05-07 08:22 47.90566 -80.43402 36883 ft 513 kts 61°
2026-05-07 08:22 47.93900 -80.34062 36879 ft 513 kts 61°
2026-05-07 08:23 47.97246 -80.24651 36872 ft 513 kts 61°
2026-05-07 08:23 48.00586 -80.15227 36869 ft 513 kts 62°
2026-05-07 08:24 48.03921 -80.05782 36876 ft 513 kts 62°
2026-05-07 08:24 48.07238 -79.96353 36868 ft 512 kts 62°
2026-05-07 08:25 48.10545 -79.86918 36873 ft 512 kts 62°
2026-05-07 08:25 48.13826 -79.77523 36871 ft 512 kts 62°
2026-05-07 08:26 48.18765 -79.63318 36877 ft 513 kts 62°
2026-05-07 08:26 48.22049 -79.53831 36869 ft 512 kts 62°
2026-05-07 08:27 48.25323 -79.44337 36867 ft 512 kts 62°
2026-05-07 08:27 48.28572 -79.34879 36867 ft 512 kts 62°
2026-05-07 08:28 48.31832 -79.25355 36867 ft 512 kts 62°
2026-05-07 08:28 48.35085 -79.15817 36859 ft 512 kts 63°
2026-05-07 08:29 48.38331 -79.06265 36857 ft 513 kts 63°
2026-05-07 08:29 48.41568 -78.96704 36859 ft 513 kts 63°
2026-05-07 08:30 48.44782 -78.87175 36860 ft 513 kts 63°
2026-05-07 08:30 48.48004 -78.77586 36866 ft 513 kts 63°
2026-05-07 08:31 48.51223 -78.67970 36865 ft 513 kts 63°
2026-05-07 08:31 48.54429 -78.58359 36876 ft 512 kts 63°
2026-05-07 08:32 48.57605 -78.48799 36874 ft 512 kts 63°
2026-05-07 08:32 48.60792 -78.39169 36874 ft 512 kts 63°
2026-05-07 08:33 48.63970 -78.29533 36873 ft 512 kts 63°
2026-05-07 08:33 48.67138 -78.19890 36871 ft 512 kts 63°
2026-05-07 08:34 48.70301 -78.10223 36874 ft 513 kts 64°
2026-05-07 08:34 48.73457 -78.00545 36867 ft 512 kts 64°
2026-05-07 08:35 48.76589 -77.90900 36866 ft 512 kts 64°
2026-05-07 08:35 48.79730 -77.81191 36861 ft 512 kts 64°
2026-05-07 08:36 48.82863 -77.71471 36863 ft 512 kts 64°
2026-05-07 08:36 48.85988 -77.61736 36867 ft 513 kts 64°
2026-05-07 08:37 48.89083 -77.52058 36860 ft 513 kts 64°
2026-05-07 08:37 48.92190 -77.42306 36856 ft 512 kts 64°
2026-05-07 08:38 48.95288 -77.32544 36850 ft 512 kts 64°
2026-05-07 08:38 48.98381 -77.22758 36847 ft 512 kts 64°
2026-05-07 08:39 49.01461 -77.12976 36834 ft 512 kts 65°
2026-05-07 08:39 49.04541 -77.03154 36846 ft 513 kts 65°
2026-05-07 08:40 49.07611 -76.93327 36843 ft 513 kts 65°
2026-05-07 08:40 49.10651 -76.83558 36843 ft 513 kts 65°
2026-05-07 08:41 49.13707 -76.73697 36845 ft 513 kts 65°
2026-05-07 08:41 49.16758 -76.63814 36846 ft 513 kts 65°
2026-05-07 08:42 49.19795 -76.53938 36848 ft 514 kts 65°
2026-05-07 08:42 49.22810 -76.44091 36845 ft 514 kts 65°
2026-05-07 08:43 49.25833 -76.34181 36845 ft 514 kts 66°
2026-05-07 08:43 49.28849 -76.24252 36845 ft 514 kts 66°
2026-05-07 08:44 49.31861 -76.14297 36845 ft 514 kts 66°
2026-05-07 08:44 49.34354 -76.06026 36845 ft 514 kts 66°
2026-05-07 08:45 49.37347 -75.96059 36845 ft 513 kts 66°
2026-05-07 08:45 49.40326 -75.86101 36847 ft 513 kts 66°
2026-05-07 08:46 49.43295 -75.76132 36840 ft 513 kts 66°
2026-05-07 08:46 49.46256 -75.66152 36844 ft 513 kts 66°
2026-05-07 08:47 49.49207 -75.56159 36845 ft 513 kts 66°
2026-05-07 08:47 49.52152 -75.46150 36843 ft 514 kts 66°
2026-05-07 08:48 49.55095 -75.36106 36843 ft 514 kts 66°
2026-05-07 08:48 49.58014 -75.26101 36843 ft 514 kts 67°
2026-05-07 08:49 49.60942 -75.16024 36840 ft 514 kts 67°
2026-05-07 08:49 49.63860 -75.05940 36840 ft 514 kts 67°
2026-05-07 08:50 49.66749 -74.95912 36829 ft 514 kts 67°
2026-05-07 08:50 49.69657 -74.85779 36811 ft 515 kts 67°
2026-05-07 08:51 49.72554 -74.75638 36798 ft 515 kts 68°
2026-05-07 08:51 49.75440 -74.65495 36786 ft 515 kts 68°
2026-05-07 08:52 49.78303 -74.55390 36787 ft 515 kts 68°
2026-05-07 08:52 49.81578 -74.45519 36786 ft 516 kts 60°
2026-05-07 08:53 49.85234 -74.36008 36794 ft 517 kts 59°
2026-05-07 08:53 49.88982 -74.26475 36807 ft 518 kts 59°
2026-05-07 08:54 49.92744 -74.16885 36834 ft 518 kts 59°
2026-05-07 08:54 49.96450 -74.07371 36831 ft 518 kts 60°
2026-05-07 08:55 50.00165 -73.97777 36831 ft 518 kts 60°
2026-05-07 08:55 50.03866 -73.88182 36832 ft 518 kts 60°
2026-05-07 08:56 50.07574 -73.78535 36824 ft 518 kts 60°
2026-05-07 08:56 50.11270 -73.68884 36834 ft 519 kts 60°
2026-05-07 08:57 50.14944 -73.59255 36834 ft 519 kts 60°
2026-05-07 08:57 50.18628 -73.49562 36834 ft 519 kts 60°
2026-05-07 08:58 50.22298 -73.39875 36832 ft 518 kts 60°
2026-05-07 08:58 50.25964 -73.30157 36834 ft 518 kts 60°
2026-05-07 08:59 50.29625 -73.20419 36835 ft 518 kts 60°
2026-05-07 08:59 50.33273 -73.10677 36831 ft 519 kts 61°
2026-05-07 09:00 50.36921 -73.00897 36835 ft 520 kts 61°
2026-05-07 09:00 50.40559 -72.91110 36837 ft 520 kts 61°
2026-05-07 09:01 50.44165 -72.81372 36831 ft 519 kts 61°
2026-05-07 09:01 50.47792 -72.71537 36832 ft 519 kts 61°
2026-05-07 09:02 50.51403 -72.61711 36832 ft 519 kts 61°
2026-05-07 09:02 50.55002 -72.51876 36826 ft 519 kts 62°
2026-05-07 09:03 50.58601 -72.42006 36830 ft 520 kts 62°
2026-05-07 09:03 50.62195 -72.32113 36832 ft 520 kts 62°
2026-05-07 09:04 50.65754 -72.22280 36831 ft 520 kts 62°
2026-05-07 09:04 50.69325 -72.12371 36830 ft 519 kts 62°
2026-05-07 09:05 50.72883 -72.02462 36827 ft 519 kts 62°
2026-05-07 09:05 50.76432 -71.92540 36782 ft 519 kts 62°
2026-05-07 09:06 50.79974 -71.82599 36814 ft 519 kts 62°
2026-05-07 09:06 50.83515 -71.72620 36814 ft 520 kts 62°
2026-05-07 09:07 50.87042 -71.62643 36818 ft 519 kts 63°
2026-05-07 09:07 50.90559 -71.52654 36816 ft 519 kts 63°
2026-05-07 09:08 50.94044 -71.42717 36818 ft 519 kts 63°
2026-05-07 09:08 50.97544 -71.32699 36822 ft 519 kts 63°
2026-05-07 09:09 51.01037 -71.22661 36821 ft 519 kts 63°
2026-05-07 09:09 51.04524 -71.12598 36823 ft 520 kts 63°
2026-05-07 09:10 51.07988 -71.02565 36820 ft 520 kts 63°
2026-05-07 09:10 51.11466 -70.92449 36820 ft 520 kts 63°
2026-05-07 09:11 51.14932 -70.82331 36822 ft 520 kts 64°
2026-05-07 09:11 51.18390 -70.72192 36807 ft 520 kts 64°
2026-05-07 09:12 51.21834 -70.62053 36825 ft 520 kts 64°
2026-05-07 09:12 51.25274 -70.51886 36813 ft 521 kts 64°
2026-05-07 09:13 51.28690 -70.41746 36816 ft 522 kts 64°
2026-05-07 09:13 51.32127 -70.31508 36815 ft 522 kts 64°
2026-05-07 09:14 51.35551 -70.21263 36815 ft 522 kts 64°
2026-05-07 09:14 51.38964 -70.11010 36814 ft 522 kts 64°
2026-05-07 09:15 51.42365 -70.00748 36815 ft 522 kts 64°
2026-05-07 09:15 51.45759 -69.90468 36815 ft 522 kts 64°
2026-05-07 09:16 51.49145 -69.80168 36813 ft 522 kts 64°
2026-05-07 09:16 51.52521 -69.69855 36812 ft 521 kts 65°
2026-05-07 09:17 51.55862 -69.59610 36812 ft 521 kts 65°
2026-05-07 09:17 51.59235 -69.49220 36813 ft 521 kts 65°
2026-05-07 09:18 51.62561 -69.38933 36813 ft 521 kts 65°
2026-05-07 09:18 51.65897 -69.28575 36812 ft 521 kts 65°
2026-05-07 09:19 51.69228 -69.18183 36806 ft 522 kts 65°
2026-05-07 09:19 51.72556 -69.07759 36806 ft 523 kts 65°
2026-05-07 09:20 51.75877 -68.97314 36804 ft 523 kts 65°
2026-05-07 09:20 51.79167 -68.86921 36806 ft 523 kts 65°
2026-05-07 09:21 51.82469 -68.76448 36807 ft 523 kts 66°
2026-05-07 09:21 51.85768 -68.65936 36800 ft 523 kts 66°
2026-05-07 09:22 51.89050 -68.55433 36770 ft 523 kts 66°
2026-05-07 09:22 51.92310 -68.44957 36806 ft 524 kts 66°
2026-05-07 09:23 51.95579 -68.34407 36801 ft 524 kts 66°
2026-05-07 09:23 51.98838 -68.23843 36803 ft 524 kts 66°
2026-05-07 09:24 52.02097 -68.13231 36797 ft 524 kts 66°
2026-05-07 09:24 52.05321 -68.02689 36795 ft 524 kts 66°
2026-05-07 09:25 52.08554 -67.92071 36796 ft 524 kts 66°
2026-05-07 09:25 52.11776 -67.81441 36788 ft 524 kts 67°
2026-05-07 09:26 52.14446 -67.72598 36795 ft 523 kts 67°
2026-05-07 09:26 52.17649 -67.61947 36795 ft 523 kts 67°
2026-05-07 09:27 52.20852 -67.51245 36793 ft 523 kts 67°
2026-05-07 09:28 52.25601 -67.35294 36776 ft 523 kts 67°
2026-05-07 09:28 52.28767 -67.24599 36787 ft 523 kts 67°
2026-05-07 09:29 52.31932 -67.13858 36759 ft 524 kts 68°
2026-05-07 09:29 52.35087 -67.03102 36788 ft 524 kts 68°
2026-05-07 09:30 52.38216 -66.92391 36787 ft 524 kts 68°
2026-05-07 09:30 52.41353 -66.81600 36787 ft 524 kts 68°
2026-05-07 09:31 52.44474 -66.70816 36790 ft 524 kts 68°
2026-05-07 09:31 52.47593 -66.59991 36784 ft 524 kts 68°
2026-05-07 09:32 52.50681 -66.49224 36785 ft 524 kts 68°
2026-05-07 09:32 52.53781 -66.38363 36768 ft 524 kts 68°
2026-05-07 09:33 52.56868 -66.27499 36788 ft 525 kts 68°
2026-05-07 09:33 52.59947 -66.16613 36787 ft 525 kts 68°
2026-05-07 09:34 52.63018 -66.05704 36788 ft 525 kts 69°
2026-05-07 09:34 52.66083 -65.94765 36788 ft 525 kts 69°
2026-05-07 09:35 52.69135 -65.83825 36787 ft 525 kts 69°
2026-05-07 09:35 52.72179 -65.72858 36785 ft 525 kts 69°
2026-05-07 09:36 52.75213 -65.61874 36786 ft 526 kts 69°
2026-05-07 09:36 52.78241 -65.50862 36786 ft 527 kts 69°
2026-05-07 09:37 52.81240 -65.39902 36786 ft 527 kts 69°
2026-05-07 09:37 52.84250 -65.28852 36784 ft 527 kts 69°
2026-05-07 09:38 52.87258 -65.17755 36786 ft 527 kts 69°
2026-05-07 09:38 52.90230 -65.06739 36789 ft 527 kts 69°
2026-05-07 09:39 52.93215 -64.95619 36791 ft 527 kts 69°
2026-05-07 09:39 52.96186 -64.84497 36787 ft 528 kts 70°
2026-05-07 09:40 52.99157 -64.73322 36793 ft 529 kts 70°
2026-05-07 09:40 53.02118 -64.62130 36793 ft 529 kts 70°
2026-05-07 09:41 53.05065 -64.50934 36790 ft 528 kts 70°
2026-05-07 09:41 53.07997 -64.39744 36796 ft 528 kts 70°
2026-05-07 09:42 53.10907 -64.28580 36794 ft 528 kts 70°
2026-05-07 09:42 53.13820 -64.17350 36793 ft 528 kts 70°
2026-05-07 09:43 53.16807 -64.06167 36793 ft 529 kts 67°
2026-05-07 09:43 53.20130 -63.95222 36793 ft 529 kts 65°
2026-05-07 09:44 53.23525 -63.84323 36799 ft 529 kts 66°
2026-05-07 09:44 53.26888 -63.73361 36796 ft 529 kts 66°
2026-05-07 09:45 53.30191 -63.62436 36794 ft 529 kts 66°
2026-05-07 09:45 53.33493 -63.51428 36801 ft 529 kts 66°
2026-05-07 09:46 53.36779 -63.40425 36799 ft 528 kts 66°
2026-05-07 09:46 53.40053 -63.29411 36781 ft 528 kts 66°
2026-05-07 09:47 53.43317 -63.18386 36802 ft 528 kts 66°
2026-05-07 09:47 53.44928 -63.12926 36969 ft 528 kts 66°
2026-05-07 09:47 53.46553 -63.07405 37211 ft 527 kts 66°
2026-05-07 09:47 53.48171 -63.01896 37473 ft 525 kts 66°
2026-05-07 09:48 53.49780 -62.96405 37763 ft 523 kts 66°
2026-05-07 09:48 53.51384 -62.90917 38019 ft 521 kts 66°
2026-05-07 09:48 53.52979 -62.85448 38226 ft 521 kts 66°
2026-05-07 09:48 53.54566 -62.79992 38419 ft 520 kts 66°
2026-05-07 09:49 53.56152 -62.74523 38575 ft 520 kts 66°
2026-05-07 09:49 53.57739 -62.69040 38720 ft 520 kts 66°
2026-05-07 09:49 53.59306 -62.63616 38803 ft 520 kts 66°
2026-05-07 09:50 53.62458 -62.52671 38811 ft 518 kts 66°
2026-05-07 09:50 53.65588 -62.41748 38814 ft 516 kts 66°
2026-05-07 09:51 53.68698 -62.30846 38813 ft 515 kts 66°
2026-05-07 09:51 53.71799 -62.19922 38818 ft 515 kts 66°
2026-05-07 09:52 53.74887 -62.08994 38816 ft 515 kts 66°
2026-05-07 09:52 53.77969 -61.98036 38814 ft 516 kts 66°
2026-05-07 09:53 53.81017 -61.87150 38819 ft 514 kts 66°
2026-05-07 09:53 53.84073 -61.76181 38817 ft 514 kts 66°
2026-05-07 09:54 53.87110 -61.65226 38819 ft 514 kts 67°
2026-05-07 09:54 53.90121 -61.54316 38820 ft 514 kts 67°
2026-05-07 09:55 53.93146 -61.43306 38823 ft 514 kts 67°
2026-05-07 09:55 53.96159 -61.32284 38823 ft 514 kts 68°
2026-05-07 09:56 53.99158 -61.21263 38821 ft 514 kts 68°
2026-05-07 09:56 54.02146 -61.10227 38821 ft 514 kts 68°
2026-05-07 09:57 54.05120 -60.99190 38825 ft 514 kts 68°
2026-05-07 09:57 54.08090 -60.88114 38821 ft 513 kts 68°
2026-05-07 09:58 54.11026 -60.77114 38808 ft 513 kts 68°
2026-05-07 09:58 54.13975 -60.66008 38829 ft 514 kts 68°
2026-05-07 09:59 54.16915 -60.54882 38830 ft 514 kts 68°
2026-05-07 09:59 54.19845 -60.43741 38832 ft 514 kts 68°
2026-05-07 10:00 54.22759 -60.32605 38835 ft 514 kts 69°
2026-05-07 10:00 54.25667 -60.21439 38838 ft 514 kts 69°
2026-05-07 10:01 54.28569 -60.10241 38840 ft 514 kts 69°
2026-05-07 10:01 54.31443 -59.99091 38836 ft 514 kts 69°
2026-05-07 10:02 54.34319 -59.87881 38803 ft 514 kts 69°
2026-05-07 10:02 54.37188 -59.76645 38841 ft 514 kts 69°
2026-05-07 10:03 54.40022 -59.65485 38842 ft 513 kts 69°
2026-05-07 10:03 54.42864 -59.54235 38844 ft 513 kts 69°
2026-05-07 10:04 54.45703 -59.42944 38847 ft 513 kts 70°
2026-05-07 10:04 54.48525 -59.31660 38849 ft 513 kts 70°
2026-05-07 10:05 54.51337 -59.20361 38851 ft 513 kts 70°
2026-05-07 10:05 54.54138 -59.09046 38850 ft 514 kts 70°
2026-05-07 10:06 54.56913 -58.97781 38814 ft 514 kts 70°
2026-05-07 10:06 54.59694 -58.86439 38847 ft 512 kts 70°
2026-05-07 10:07 54.62452 -58.75124 38853 ft 511 kts 70°
2026-05-07 10:07 54.65197 -58.63801 38852 ft 511 kts 71°
2026-05-07 10:08 54.67486 -58.54315 38849 ft 511 kts 71°
2026-05-07 10:08 54.70197 -58.43032 38847 ft 511 kts 71°
2026-05-07 10:09 54.72914 -58.31662 38850 ft 511 kts 71°
2026-05-07 10:09 54.75618 -58.20287 38854 ft 511 kts 71°
2026-05-07 10:10 54.78312 -58.08892 38856 ft 511 kts 71°
2026-05-07 10:10 54.81000 -57.97462 38847 ft 512 kts 71°
2026-05-07 10:11 54.83680 -57.86008 38846 ft 512 kts 71°
2026-05-07 10:11 54.86329 -57.74623 38848 ft 512 kts 71°
2026-05-07 10:12 54.88984 -57.63152 38870 ft 511 kts 71°
2026-05-07 10:12 54.91633 -57.51646 38855 ft 512 kts 71°
2026-05-07 10:13 54.94253 -57.40202 38870 ft 512 kts 71°
2026-05-07 10:13 54.96878 -57.28679 38870 ft 512 kts 71°
2026-05-07 10:14 54.99492 -57.17136 38874 ft 512 kts 72°
2026-05-07 10:14 55.02094 -57.05584 38871 ft 513 kts 71°
2026-05-07 10:15 55.04523 -56.93892 38879 ft 512 kts 76°
2026-05-07 10:15 55.06526 -56.81987 38881 ft 511 kts 78°
2026-05-07 10:16 55.08453 -56.70037 38886 ft 511 kts 78°
2026-05-07 10:16 55.10410 -56.58094 38886 ft 512 kts 77°
2026-05-07 10:17 55.12388 -56.46138 38892 ft 512 kts 77°
2026-05-07 10:17 55.14350 -56.34258 38892 ft 512 kts 77°
2026-05-07 10:18 55.16311 -56.22296 38886 ft 512 kts 78°
2026-05-07 10:18 55.18263 -56.10292 38903 ft 513 kts 78°
2026-05-07 10:19 55.20207 -55.98254 38903 ft 513 kts 78°
2026-05-07 10:19 55.22139 -55.86205 38911 ft 513 kts 78°
2026-05-07 10:20 55.24056 -55.74160 38908 ft 513 kts 78°
2026-05-07 10:20 55.25961 -55.62103 38917 ft 513 kts 78°
2026-05-07 10:21 55.27856 -55.50024 38917 ft 514 kts 78°
2026-05-07 10:21 55.29728 -55.38005 38889 ft 513 kts 78°
2026-05-07 10:22 55.31602 -55.25879 38915 ft 515 kts 78°
2026-05-07 10:22 55.33468 -55.13723 38930 ft 515 kts 78°
2026-05-07 10:23 55.35318 -55.01582 38923 ft 515 kts 79°
2026-05-07 10:23 55.37159 -54.89408 38927 ft 514 kts 79°
2026-05-07 10:24 55.38974 -54.77320 38933 ft 513 kts 79°
2026-05-07 10:24 55.40785 -54.65160 38936 ft 513 kts 79°
2026-05-07 10:25 55.42574 -54.53054 38938 ft 513 kts 79°
2026-05-07 10:25 55.44359 -54.40885 38938 ft 513 kts 79°
2026-05-07 10:26 55.46131 -54.28715 38945 ft 512 kts 79°
2026-05-07 10:26 55.47891 -54.16532 38944 ft 512 kts 79°
2026-05-07 10:27 55.49640 -54.04329 38948 ft 512 kts 79°
2026-05-07 10:27 55.51371 -53.92162 38947 ft 512 kts 79°
2026-05-07 10:28 55.53090 -53.79975 38955 ft 512 kts 79°
2026-05-07 10:28 55.54788 -53.67848 38954 ft 511 kts 79°
2026-05-07 10:29 55.56481 -53.55657 38958 ft 511 kts 80°
2026-05-07 10:29 55.58163 -53.43449 38961 ft 511 kts 80°
2026-05-07 10:30 55.60661 -53.25134 38965 ft 511 kts 80°
2026-05-07 10:30 55.62311 -53.12912 38965 ft 511 kts 80°
2026-05-07 10:31 55.63940 -53.00743 38970 ft 510 kts 80°
2026-05-07 10:31 55.65566 -52.88505 38969 ft 510 kts 81°
2026-05-07 10:32 55.67175 -52.76279 38971 ft 510 kts 81°
2026-05-07 10:32 55.68773 -52.64034 38976 ft 511 kts 80°
2026-05-07 10:33 55.70363 -52.51753 38982 ft 511 kts 80°
2026-05-07 10:33 55.71943 -52.39457 38979 ft 511 kts 80°
2026-05-07 10:34 55.73509 -52.27152 38979 ft 511 kts 81°
2026-05-07 10:34 55.75064 -52.14825 38984 ft 511 kts 81°
2026-05-07 10:35 55.76595 -52.02588 38991 ft 511 kts 81°
2026-05-07 10:35 55.78125 -51.90244 38988 ft 511 kts 81°
2026-05-07 10:36 55.79643 -51.77893 38982 ft 511 kts 81°
2026-05-07 10:36 55.81138 -51.65616 38988 ft 510 kts 81°
2026-05-07 10:37 55.82626 -51.53297 38995 ft 509 kts 81°
2026-05-07 10:37 55.84099 -51.40981 38992 ft 509 kts 81°
2026-05-07 10:38 55.85559 -51.28657 38992 ft 509 kts 81°
2026-05-07 10:38 55.87009 -51.16311 38996 ft 509 kts 81°
2026-05-07 10:39 55.88445 -51.03965 38998 ft 510 kts 82°
2026-05-07 10:39 55.89878 -50.91523 38973 ft 514 kts 81°
2026-05-07 10:40 55.91304 -50.79035 39004 ft 514 kts 81°
2026-05-07 10:40 55.92720 -50.66519 39004 ft 514 kts 82°
2026-05-07 10:41 55.94111 -50.54094 39012 ft 514 kts 82°
2026-05-07 10:41 55.95499 -50.41584 39013 ft 514 kts 82°
2026-05-07 10:42 55.96873 -50.29066 39011 ft 514 kts 82°
2026-05-07 10:42 55.98236 -50.16530 39014 ft 513 kts 82°
2026-05-07 10:43 55.99587 -50.03977 39018 ft 513 kts 82°
2026-05-07 10:43 56.01116 -49.91490 39015 ft 514 kts 78°
2026-05-07 10:44 56.02901 -49.79187 39020 ft 515 kts 77°
2026-05-07 10:44 56.04714 -49.66782 39025 ft 515 kts 77°
2026-05-07 10:45 56.06479 -49.54363 39020 ft 514 kts 78°
2026-05-07 10:45 56.08209 -49.41940 39029 ft 514 kts 78°
2026-05-07 10:46 56.09907 -49.29607 39031 ft 514 kts 78°
2026-05-07 10:46 56.11607 -49.17163 39031 ft 513 kts 78°
2026-05-07 10:47 56.13294 -49.04725 39034 ft 513 kts 78°
2026-05-07 10:47 56.14688 -48.94361 39034 ft 513 kts 78°
2026-05-07 10:48 56.16352 -48.81907 39034 ft 513 kts 78°
2026-05-07 10:48 56.18005 -48.69434 39034 ft 513 kts 78°
2026-05-07 10:49 56.19642 -48.56971 39039 ft 513 kts 78°
2026-05-07 10:49 56.21272 -48.44458 39042 ft 513 kts 78°
2026-05-07 10:50 56.22885 -48.31959 39043 ft 513 kts 78°
2026-05-07 10:50 56.24477 -48.19529 39048 ft 513 kts 78°
2026-05-07 10:51 56.26067 -48.06998 39048 ft 513 kts 78°
2026-05-07 10:51 56.27641 -47.94481 39047 ft 513 kts 78°
2026-05-07 10:52 56.29201 -47.81967 39051 ft 512 kts 78°
2026-05-07 10:52 56.30749 -47.69439 39063 ft 512 kts 78°
2026-05-07 10:53 56.32280 -47.56932 39058 ft 512 kts 78°
2026-05-07 10:53 56.33795 -47.44450 39064 ft 512 kts 78°
2026-05-07 10:54 56.35303 -47.31903 39067 ft 512 kts 78°
2026-05-07 10:54 56.36797 -47.19360 39067 ft 512 kts 78°
2026-05-07 10:55 56.38281 -47.06790 39071 ft 511 kts 78°
2026-05-07 10:55 56.39742 -46.94290 39070 ft 511 kts 77°
2026-05-07 10:56 56.41198 -46.81716 39083 ft 511 kts 78°
2026-05-07 10:56 56.42639 -46.69158 39083 ft 510 kts 78°
2026-05-07 10:57 56.44070 -46.56575 39094 ft 511 kts 78°
2026-05-07 10:57 56.45486 -46.43988 39094 ft 511 kts 78°
2026-05-07 10:58 56.46881 -46.31470 39104 ft 511 kts 78°
2026-05-07 10:58 56.48271 -46.18874 39102 ft 511 kts 78°
2026-05-07 10:59 56.49650 -46.06261 39116 ft 511 kts 78°
2026-05-07 10:59 56.51016 -45.93629 39100 ft 511 kts 78°
2026-05-07 11:00 56.52368 -45.81000 39121 ft 510 kts 78°
2026-05-07 11:00 56.53705 -45.68384 39129 ft 509 kts 78°
2026-05-07 11:01 56.55021 -45.55841 39135 ft 509 kts 78°
2026-05-07 11:01 56.56333 -45.43205 39134 ft 509 kts 78°
2026-05-07 11:02 56.57630 -45.30581 39140 ft 509 kts 78°
2026-05-07 11:02 56.58916 -45.17928 39140 ft 509 kts 78°
2026-05-07 11:03 56.60182 -45.05339 39164 ft 509 kts 78°
2026-05-07 11:03 56.61441 -44.92682 39148 ft 509 kts 78°
2026-05-07 11:04 56.62687 -44.80019 39153 ft 509 kts 78°
2026-05-07 11:04 56.63924 -44.67318 39163 ft 509 kts 78°
2026-05-07 11:05 56.65134 -44.54742 39162 ft 509 kts 78°
2026-05-07 11:05 56.66341 -44.42066 39167 ft 509 kts 78°
2026-05-07 11:06 56.67535 -44.29374 39169 ft 509 kts 78°
2026-05-07 11:06 56.68718 -44.16656 39175 ft 510 kts 78°
2026-05-07 11:07 56.69891 -44.03906 39181 ft 510 kts 78°
2026-05-07 11:07 56.71049 -43.91163 39184 ft 510 kts 78°
2026-05-07 11:08 56.72189 -43.78469 39184 ft 510 kts 78°
2026-05-07 11:08 56.73321 -43.65706 39200 ft 511 kts 78°
2026-05-07 11:09 56.74444 -43.52902 39196 ft 512 kts 78°
2026-05-07 11:09 56.75553 -43.40087 39198 ft 512 kts 78°
2026-05-07 11:10 56.76650 -43.27263 39205 ft 512 kts 79°
2026-05-07 11:10 56.77735 -43.14404 39213 ft 512 kts 79°
2026-05-07 11:11 56.78799 -43.01641 39237 ft 512 kts 79°
2026-05-07 11:11 56.79857 -42.88780 39210 ft 513 kts 79°
2026-05-07 11:12 56.80906 -42.75870 39223 ft 514 kts 78°
2026-05-07 11:12 56.81939 -42.62972 39223 ft 513 kts 78°
2026-05-07 11:13 56.82958 -42.50079 39228 ft 513 kts 79°
2026-05-07 11:13 56.83964 -42.37175 39233 ft 513 kts 79°
2026-05-07 11:14 56.84959 -42.24241 39244 ft 514 kts 79°
2026-05-07 11:14 56.85942 -42.11280 39240 ft 515 kts 79°
2026-05-07 11:15 56.86912 -41.98314 39250 ft 515 kts 79°
2026-05-07 11:15 56.87868 -41.85326 39251 ft 515 kts 79°
2026-05-07 11:16 56.88806 -41.72405 39255 ft 515 kts 79°
2026-05-07 11:16 56.89736 -41.59395 39257 ft 515 kts 78°
2026-05-07 11:17 56.90656 -41.46352 39269 ft 516 kts 79°
2026-05-07 11:17 56.91557 -41.33378 39267 ft 516 kts 79°
2026-05-07 11:18 56.92448 -41.20330 39273 ft 516 kts 79°
2026-05-07 11:18 56.93326 -41.07266 39284 ft 516 kts 79°
2026-05-07 11:19 56.94190 -40.94208 39311 ft 516 kts 79°
2026-05-07 11:19 56.95035 -40.81233 39285 ft 515 kts 79°
2026-05-07 11:20 56.95869 -40.68188 39295 ft 515 kts 79°
2026-05-07 11:20 56.96688 -40.55177 39295 ft 514 kts 79°
2026-05-07 11:21 56.97495 -40.42142 39298 ft 513 kts 79°
2026-05-07 11:21 56.98287 -40.29140 39303 ft 513 kts 79°
2026-05-07 11:22 56.99059 -40.16220 39306 ft 511 kts 79°
2026-05-07 11:22 56.99816 -40.03301 39306 ft 509 kts 79°
2026-05-07 11:23 57.00449 -39.90342 39306 ft 511 kts 81°
2026-05-07 11:23 57.00933 -39.77330 39307 ft 511 kts 82°
2026-05-07 11:24 57.01395 -39.64283 39317 ft 511 kts 82°
2026-05-07 11:24 57.01859 -39.51256 39327 ft 510 kts 81°
2026-05-07 11:25 57.02314 -39.38385 39320 ft 507 kts 81°
2026-05-07 11:25 57.02762 -39.25449 39325 ft 507 kts 82°
2026-05-07 11:26 57.03197 -39.12504 39326 ft 508 kts 82°
2026-05-07 11:26 57.03617 -38.99546 39327 ft 508 kts 82°
2026-05-07 11:27 57.04024 -38.86596 39330 ft 508 kts 82°
2026-05-07 11:27 57.04414 -38.73725 39330 ft 508 kts 82°
2026-05-07 11:28 57.04793 -38.60766 39335 ft 508 kts 82°
2026-05-07 11:28 57.05160 -38.47787 39333 ft 508 kts 82°
2026-05-07 11:29 57.05513 -38.34804 39338 ft 508 kts 82°
2026-05-07 11:29 57.05851 -38.21903 39337 ft 508 kts 82°
2026-05-07 11:30 57.06178 -38.08923 39345 ft 509 kts 82°
2026-05-07 11:30 57.06441 -37.98074 39338 ft 512 kts 83°
2026-05-07 11:31 57.06745 -37.85000 39338 ft 512 kts 83°
2026-05-07 11:31 57.07035 -37.71923 39339 ft 512 kts 83°
2026-05-07 11:32 57.07444 -37.52286 39342 ft 512 kts 83°
2026-05-07 11:33 57.07701 -37.39181 39369 ft 512 kts 83°
2026-05-07 11:33 57.07941 -37.26186 39340 ft 511 kts 83°
2026-05-07 11:34 57.08170 -37.13124 39341 ft 511 kts 83°
2026-05-07 11:34 57.08385 -37.00061 39341 ft 511 kts 83°
2026-05-07 11:35 57.08587 -36.86993 39344 ft 511 kts 83°
2026-05-07 11:35 57.08775 -36.73906 39343 ft 511 kts 83°
2026-05-07 11:36 57.08949 -36.60826 39346 ft 509 kts 83°
2026-05-07 11:36 57.09104 -36.47966 39351 ft 504 kts 83°
2026-05-07 11:37 57.09248 -36.35109 39347 ft 501 kts 83°
2026-05-07 11:37 57.09381 -36.22271 39350 ft 502 kts 83°
2026-05-07 11:38 57.09501 -36.09438 39338 ft 502 kts 83°
2026-05-07 11:38 57.09607 -35.96586 39362 ft 502 kts 83°
2026-05-07 11:39 57.09698 -35.83841 39347 ft 500 kts 84°
2026-05-07 11:39 57.09775 -35.71085 39349 ft 498 kts 84°
2026-05-07 11:40 57.09842 -35.58323 39350 ft 498 kts 84°
2026-05-07 11:40 57.09895 -35.45556 39360 ft 499 kts 84°
2026-05-07 11:41 57.09935 -35.32879 39349 ft 498 kts 84°
2026-05-07 11:41 57.09961 -35.20125 39366 ft 498 kts 84°
2026-05-07 11:42 57.09976 -35.07370 39351 ft 499 kts 84°
2026-05-07 11:42 57.09977 -34.94592 39355 ft 499 kts 84°
2026-05-07 11:43 57.09965 -34.81822 39357 ft 499 kts 84°
2026-05-07 11:43 57.09939 -34.69053 39354 ft 499 kts 85°
2026-05-07 11:44 57.09901 -34.56285 39344 ft 499 kts 85°
2026-05-07 11:44 57.09851 -34.43562 39359 ft 501 kts 85°
2026-05-07 11:45 57.09788 -34.30695 39353 ft 503 kts 85°
2026-05-07 11:45 57.09710 -34.17815 39355 ft 504 kts 85°
2026-05-07 11:46 57.09618 -34.04935 39352 ft 504 kts 85°
2026-05-07 11:46 57.09514 -33.92126 39352 ft 504 kts 85°
2026-05-07 11:47 57.09397 -33.79225 39388 ft 504 kts 85°
2026-05-07 11:47 57.09267 -33.66323 39354 ft 506 kts 85°
2026-05-07 11:48 57.09123 -33.53370 39343 ft 506 kts 85°
2026-05-07 11:48 57.08964 -33.40422 39344 ft 506 kts 86°
2026-05-07 11:49 57.08794 -33.27550 39344 ft 507 kts 86°
2026-05-07 11:49 57.08609 -33.14599 39344 ft 506 kts 86°
2026-05-07 11:50 57.08411 -33.01621 39351 ft 507 kts 86°
2026-05-07 11:50 57.08199 -32.88654 39343 ft 507 kts 86°
2026-05-07 11:51 57.07976 -32.75772 39343 ft 507 kts 86°
2026-05-07 11:51 57.07737 -32.62813 39343 ft 507 kts 86°
2026-05-07 11:52 57.07486 -32.49855 39347 ft 507 kts 86°
2026-05-07 11:52 57.07221 -32.36898 39341 ft 507 kts 86°
2026-05-07 11:53 57.06942 -32.23944 39334 ft 506 kts 87°
2026-05-07 11:53 57.06651 -32.11041 39335 ft 506 kts 87°
2026-05-07 11:54 57.06347 -31.98126 39329 ft 506 kts 87°
2026-05-07 11:54 57.06030 -31.85194 39342 ft 506 kts 87°
2026-05-07 11:55 57.05698 -31.72262 39331 ft 506 kts 87°
2026-05-07 11:55 57.05354 -31.59343 39331 ft 506 kts 88°
2026-05-07 11:56 57.04998 -31.46496 39325 ft 506 kts 88°
2026-05-07 11:56 57.04627 -31.33578 39326 ft 506 kts 88°
2026-05-07 11:57 57.04243 -31.20659 39342 ft 506 kts 88°
2026-05-07 11:57 57.03845 -31.07747 39327 ft 506 kts 88°
2026-05-07 11:58 57.03438 -30.94925 39335 ft 506 kts 88°
2026-05-07 11:58 57.03014 -30.82011 39323 ft 506 kts 88°
2026-05-07 11:59 57.02576 -30.69103 39319 ft 507 kts 88°
2026-05-07 11:59 57.02125 -30.56190 39320 ft 507 kts 89°
2026-05-07 12:00 57.01660 -30.43270 39320 ft 507 kts 89°
2026-05-07 12:00 57.01182 -30.30350 39317 ft 507 kts 89°
2026-05-07 12:01 57.00693 -30.17482 39331 ft 506 kts 89°
2026-05-07 12:01 57.00190 -30.04595 39311 ft 506 kts 89°
2026-05-07 12:02 56.99585 -29.91798 39306 ft 507 kts 91°
2026-05-07 12:02 56.98810 -29.78923 39306 ft 508 kts 92°
2026-05-07 12:03 56.98005 -29.66053 39303 ft 508 kts 92°
2026-05-07 12:03 56.97203 -29.53155 39303 ft 508 kts 92°
2026-05-07 12:04 56.96400 -29.40286 39303 ft 508 kts 92°
2026-05-07 12:04 56.95591 -29.27508 39301 ft 508 kts 92°
2026-05-07 12:05 56.94764 -29.14645 39292 ft 508 kts 92°
2026-05-07 12:05 56.93923 -29.01788 39290 ft 508 kts 92°
2026-05-07 12:06 56.93068 -28.88933 39292 ft 508 kts 93°
2026-05-07 12:06 56.92202 -28.76115 39292 ft 508 kts 93°
2026-05-07 12:07 56.91323 -28.63285 39289 ft 508 kts 93°
2026-05-07 12:07 56.90434 -28.50534 39284 ft 508 kts 93°
2026-05-07 12:08 56.89528 -28.37720 39280 ft 508 kts 94°
2026-05-07 12:08 56.88608 -28.24905 39276 ft 508 kts 94°
2026-05-07 12:09 56.87674 -28.12077 39277 ft 508 kts 94°
2026-05-07 12:09 56.86727 -27.99258 39290 ft 508 kts 94°
2026-05-07 12:10 56.85768 -27.86464 39266 ft 508 kts 94°
2026-05-07 12:10 56.84801 -27.73743 39268 ft 508 kts 94°
2026-05-07 12:11 56.83816 -27.60962 39262 ft 508 kts 94°
2026-05-07 12:11 56.82817 -27.48173 39262 ft 508 kts 95°
2026-05-07 12:12 56.81804 -27.35379 39260 ft 509 kts 95°
2026-05-07 12:12 56.80779 -27.22605 39258 ft 508 kts 95°
2026-05-07 12:13 56.79741 -27.09849 39253 ft 508 kts 95°
2026-05-07 12:13 56.78696 -26.97165 39252 ft 508 kts 95°
2026-05-07 12:14 56.77633 -26.84426 39241 ft 508 kts 95°
2026-05-07 12:14 56.76732 -26.73750 39242 ft 508 kts 96°
2026-05-07 12:15 56.75651 -26.61093 39245 ft 508 kts 96°
2026-05-07 12:15 56.74550 -26.48363 39238 ft 508 kts 96°
2026-05-07 12:16 56.73437 -26.35657 39234 ft 508 kts 96°
2026-05-07 12:16 56.72312 -26.22957 39233 ft 508 kts 96°
2026-05-07 12:17 56.71171 -26.10232 39230 ft 508 kts 96°
2026-05-07 12:17 56.70026 -25.97616 39226 ft 508 kts 97°
2026-05-07 12:18 56.68861 -25.84935 39245 ft 508 kts 97°
2026-05-07 12:18 56.67684 -25.72259 39230 ft 507 kts 97°
2026-05-07 12:19 56.66493 -25.59593 39214 ft 507 kts 97°
2026-05-07 12:19 56.65293 -25.46961 39207 ft 507 kts 97°
2026-05-07 12:20 56.64084 -25.34381 39211 ft 508 kts 97°
2026-05-07 12:20 56.62855 -25.21741 39208 ft 508 kts 97°
2026-05-07 12:21 56.61613 -25.09100 39206 ft 507 kts 98°
2026-05-07 12:21 56.60361 -24.96501 39199 ft 507 kts 98°
2026-05-07 12:22 56.59095 -24.83894 39194 ft 507 kts 98°
2026-05-07 12:22 56.57819 -24.71319 39195 ft 507 kts 98°
2026-05-07 12:23 56.56537 -24.58825 39190 ft 507 kts 98°
2026-05-07 12:23 56.55233 -24.46245 39185 ft 507 kts 98°
2026-05-07 12:24 56.53916 -24.33662 39187 ft 508 kts 98°
2026-05-07 12:24 56.52592 -24.21159 39188 ft 508 kts 99°
2026-05-07 12:25 56.51248 -24.08587 39186 ft 508 kts 99°
2026-05-07 12:25 56.49894 -23.96047 39188 ft 508 kts 99°
2026-05-07 12:26 56.48524 -23.83479 39179 ft 508 kts 99°
2026-05-07 12:26 56.47151 -23.71013 39184 ft 508 kts 99°
2026-05-07 12:27 56.45759 -23.58508 39176 ft 507 kts 99°
2026-05-07 12:27 56.44355 -23.46007 39173 ft 507 kts 99°
2026-05-07 12:28 56.42939 -23.33521 39168 ft 507 kts 100°
2026-05-07 12:28 56.41512 -23.21053 39167 ft 507 kts 100°
2026-05-07 12:29 56.40072 -23.08597 39159 ft 507 kts 100°
2026-05-07 12:29 56.38630 -22.96235 39162 ft 506 kts 100°
2026-05-07 12:30 56.37165 -22.83794 39153 ft 506 kts 101°
2026-05-07 12:30 56.35689 -22.71380 39150 ft 506 kts 101°
2026-05-07 12:31 56.34200 -22.58967 39146 ft 507 kts 101°
2026-05-07 12:31 56.32697 -22.46548 39143 ft 506 kts 101°
2026-05-07 12:32 56.31182 -22.34142 39141 ft 506 kts 101°
2026-05-07 12:32 56.29656 -22.21759 39141 ft 506 kts 101°
2026-05-07 12:33 56.27354 -22.03287 39122 ft 506 kts 102°
2026-05-07 12:33 56.25796 -21.90915 39127 ft 506 kts 102°
2026-05-07 12:34 56.24226 -21.78566 39122 ft 507 kts 102°
2026-05-07 12:34 56.22644 -21.66219 39112 ft 507 kts 102°
2026-05-07 12:35 56.21046 -21.53861 39114 ft 507 kts 102°
2026-05-07 12:35 56.19437 -21.41517 39114 ft 508 kts 102°
2026-05-07 12:36 56.17824 -21.29247 39101 ft 508 kts 103°
2026-05-07 12:36 56.16191 -21.16933 39103 ft 508 kts 103°
2026-05-07 12:37 56.14541 -21.04588 39107 ft 508 kts 103°
2026-05-07 12:37 56.12880 -20.92268 39092 ft 508 kts 103°
2026-05-07 12:38 56.11209 -20.79969 39094 ft 508 kts 103°
2026-05-07 12:38 56.09523 -20.67667 39086 ft 508 kts 104°
2026-05-07 12:39 56.07836 -20.55457 39086 ft 508 kts 104°
2026-05-07 12:39 56.06124 -20.43166 39086 ft 508 kts 104°
2026-05-07 12:40 56.04400 -20.30884 39075 ft 508 kts 104°
2026-05-07 12:40 56.02667 -20.18635 39078 ft 509 kts 104°
2026-05-07 12:41 56.00928 -20.06435 39061 ft 509 kts 104°
2026-05-07 12:41 55.99550 -19.94025 39066 ft 509 kts 99°
2026-05-07 12:42 55.98505 -19.81519 39058 ft 509 kts 98°
2026-05-07 12:42 55.97510 -19.69010 39054 ft 509 kts 98°
2026-05-07 12:43 55.96502 -19.56491 39056 ft 509 kts 98°
2026-05-07 12:43 55.95471 -19.43982 39052 ft 509 kts 98°
2026-05-07 12:44 55.94429 -19.31550 39035 ft 510 kts 99°
2026-05-07 12:44 55.93367 -19.19060 39037 ft 509 kts 99°
2026-05-07 12:45 55.92291 -19.06547 39033 ft 509 kts 99°
2026-05-07 12:45 55.91205 -18.94063 39019 ft 509 kts 99°
2026-05-07 12:46 55.90112 -18.81661 39020 ft 511 kts 99°
2026-05-07 12:46 55.88998 -18.69161 39020 ft 510 kts 99°
2026-05-07 12:47 55.87872 -18.56682 39009 ft 510 kts 100°
2026-05-07 12:47 55.86732 -18.44200 39013 ft 510 kts 100°
2026-05-07 12:48 55.85580 -18.31719 39007 ft 511 kts 100°
2026-05-07 12:48 55.84423 -18.19329 39000 ft 511 kts 101°
2026-05-07 12:49 55.83243 -18.06844 38994 ft 511 kts 101°
2026-05-07 12:49 55.82050 -17.94360 38994 ft 512 kts 100°
2026-05-07 12:50 55.80844 -17.81883 38977 ft 512 kts 101°
2026-05-07 12:50 55.79635 -17.69509 38988 ft 510 kts 101°
2026-05-07 12:51 55.78400 -17.56994 38977 ft 510 kts 101°
2026-05-07 12:51 55.77167 -17.44646 38977 ft 511 kts 101°
2026-05-07 12:52 55.75914 -17.32229 38980 ft 511 kts 101°
2026-05-07 12:52 55.74647 -17.19801 38980 ft 510 kts 101°
2026-05-07 12:53 55.73370 -17.07406 38982 ft 511 kts 101°
2026-05-07 12:53 55.72078 -16.94994 38968 ft 511 kts 102°
2026-05-07 12:54 55.70783 -16.82696 38967 ft 510 kts 102°
2026-05-07 12:54 55.69689 -16.72388 38942 ft 511 kts 102°
2026-05-07 12:55 55.68366 -16.60040 38960 ft 510 kts 102°
2026-05-07 12:55 55.67032 -16.47717 38954 ft 509 kts 102°
2026-05-07 12:56 55.65686 -16.35398 38954 ft 509 kts 102°
2026-05-07 12:56 55.64328 -16.23101 38944 ft 508 kts 102°
2026-05-07 12:57 55.62961 -16.10838 38948 ft 508 kts 103°
2026-05-07 12:57 55.61589 -15.98653 38939 ft 507 kts 103°
2026-05-07 12:58 55.60195 -15.86378 38937 ft 508 kts 103°
2026-05-07 12:58 55.58792 -15.74141 38929 ft 508 kts 103°
2026-05-07 12:59 55.57378 -15.61929 38910 ft 506 kts 103°
2026-05-07 12:59 55.55955 -15.49750 38923 ft 506 kts 103°
2026-05-07 13:00 55.54521 -15.37596 38925 ft 505 kts 103°
2026-05-07 13:00 55.53076 -15.25449 38913 ft 505 kts 104°
2026-05-07 13:01 55.51627 -15.13379 38909 ft 505 kts 104°
2026-05-07 13:01 55.50281 -15.01221 38904 ft 506 kts 97°
2026-05-07 13:02 55.50011 -14.88803 38908 ft 507 kts 92°
2026-05-07 13:02 55.50024 -14.76336 38899 ft 508 kts 91°
2026-05-07 13:03 55.50079 -14.63890 38907 ft 508 kts 91°
2026-05-07 13:03 55.50108 -14.51434 38892 ft 507 kts 91°
2026-05-07 13:04 55.50108 -14.38986 38894 ft 507 kts 91°
2026-05-07 13:04 55.50089 -14.26552 38887 ft 507 kts 92°
2026-05-07 13:05 55.50058 -14.14203 38875 ft 507 kts 92°
2026-05-07 13:05 55.49944 -14.01763 38875 ft 505 kts 97°
2026-05-07 13:06 55.48903 -13.89549 38875 ft 502 kts 102°
2026-05-07 13:06 55.47613 -13.77463 38876 ft 502 kts 103°
2026-05-07 13:07 55.46261 -13.65386 38871 ft 501 kts 103°
2026-05-07 13:07 55.44909 -13.53345 38869 ft 501 kts 103°
2026-05-07 13:08 55.43565 -13.41363 38855 ft 501 kts 103°
2026-05-07 13:08 55.42205 -13.29312 38857 ft 500 kts 104°
2026-05-07 13:09 55.40839 -13.17313 38856 ft 499 kts 104°
2026-05-07 13:09 55.39462 -13.05340 38867 ft 499 kts 104°
2026-05-07 13:10 55.38073 -12.93375 38858 ft 499 kts 104°
2026-05-07 13:10 55.36681 -12.81495 38854 ft 499 kts 104°
2026-05-07 13:11 55.35273 -12.69576 38856 ft 497 kts 104°
2026-05-07 13:11 55.33858 -12.57711 38861 ft 496 kts 104°
2026-05-07 13:12 55.32432 -12.45861 38857 ft 496 kts 104°
2026-05-07 13:12 55.30993 -12.34004 38858 ft 496 kts 105°
2026-05-07 13:13 55.29543 -12.22156 38842 ft 496 kts 105°
2026-05-07 13:13 55.28090 -12.10386 38864 ft 496 kts 105°
2026-05-07 13:14 55.26618 -11.98566 38860 ft 495 kts 105°
2026-05-07 13:14 55.25135 -11.86756 38859 ft 495 kts 105°
2026-05-07 13:15 55.23640 -11.74956 38858 ft 495 kts 105°
2026-05-07 13:15 55.22145 -11.63247 38860 ft 495 kts 105°
2026-05-07 13:16 55.20628 -11.51464 38865 ft 495 kts 105°
2026-05-07 13:16 55.19101 -11.39705 38863 ft 495 kts 105°
2026-05-07 13:17 55.17562 -11.27942 38863 ft 495 kts 105°
2026-05-07 13:17 55.16013 -11.16201 38868 ft 495 kts 105°
2026-05-07 13:18 55.14451 -11.04459 38863 ft 495 kts 106°
2026-05-07 13:18 55.12888 -10.92801 38867 ft 496 kts 106°
2026-05-07 13:19 55.11304 -10.81077 38867 ft 496 kts 106°
2026-05-07 13:19 55.09706 -10.69348 38873 ft 496 kts 106°
2026-05-07 13:20 55.08100 -10.57642 38873 ft 496 kts 106°
2026-05-07 13:20 55.06480 -10.45934 38870 ft 496 kts 106°
2026-05-07 13:21 55.04849 -10.34235 38875 ft 496 kts 107°
2026-05-07 13:21 55.03217 -10.22616 38881 ft 496 kts 107°
2026-05-07 13:22 55.01567 -10.10958 38881 ft 495 kts 107°
2026-05-07 13:22 54.99907 -9.99306 38880 ft 495 kts 107°
2026-05-07 13:23 54.98262 -9.87658 38880 ft 495 kts 107°
2026-05-07 13:23 54.96619 -9.76018 38886 ft 495 kts 107°
2026-05-07 13:24 54.94965 -9.64392 38886 ft 494 kts 107°
2026-05-07 13:24 54.93301 -9.52804 38889 ft 494 kts 107°
2026-05-07 13:25 54.91621 -9.41203 38889 ft 494 kts 107°
2026-05-07 13:25 54.89943 -9.29695 38885 ft 494 kts 108°
2026-05-07 13:26 54.88250 -9.18165 38890 ft 491 kts 108°
2026-05-07 13:26 54.86552 -9.06691 38893 ft 490 kts 108°
2026-05-07 13:27 54.84844 -8.95232 38897 ft 490 kts 108°
2026-05-07 13:27 54.83121 -8.83759 38891 ft 490 kts 108°
2026-05-07 13:28 54.81402 -8.72387 38890 ft 490 kts 108°
2026-05-07 13:28 54.79663 -8.60963 38895 ft 488 kts 108°
2026-05-07 13:29 54.77929 -8.49642 38895 ft 485 kts 108°
2026-05-07 13:29 54.76183 -8.38333 38897 ft 485 kts 108°
2026-05-07 13:30 54.74440 -8.27125 38900 ft 485 kts 108°
2026-05-07 13:30 54.72677 -8.15862 38889 ft 485 kts 108°
2026-05-07 13:31 54.70904 -8.04610 38892 ft 482 kts 108°
2026-05-07 13:31 54.69137 -7.93463 38895 ft 480 kts 108°
2026-05-07 13:32 54.67357 -7.82321 38897 ft 480 kts 109°
2026-05-07 13:32 54.65568 -7.71190 38901 ft 481 kts 109°
2026-05-07 13:33 54.63770 -7.60075 38899 ft 481 kts 109°
2026-05-07 13:33 54.61971 -7.49027 38904 ft 480 kts 109°
2026-05-07 13:34 54.59248 -7.32441 38908 ft 478 kts 109°
2026-05-07 13:35 54.57424 -7.21417 38907 ft 478 kts 109°
2026-05-07 13:35 54.55898 -7.12252 38908 ft 478 kts 109°
2026-05-07 13:36 54.54051 -7.01222 38911 ft 478 kts 109°
2026-05-07 13:36 54.52201 -6.90237 38912 ft 478 kts 109°
2026-05-07 13:37 54.50351 -6.79324 38919 ft 478 kts 109°
2026-05-07 13:37 54.48477 -6.68340 38919 ft 478 kts 109°
2026-05-07 13:38 54.46594 -6.57372 38930 ft 478 kts 109°
2026-05-07 13:38 54.44703 -6.46421 38933 ft 478 kts 109°
2026-05-07 13:39 54.42803 -6.35490 38935 ft 477 kts 109°
2026-05-07 13:39 54.40909 -6.24655 38937 ft 476 kts 109°
2026-05-07 13:40 54.38994 -6.13768 38945 ft 476 kts 109°
2026-05-07 13:40 54.37068 -6.02885 38945 ft 476 kts 109°
2026-05-07 13:41 54.35133 -5.92019 38938 ft 476 kts 109°
2026-05-07 13:41 54.33188 -5.81161 38950 ft 476 kts 109°
2026-05-07 13:42 54.31245 -5.70374 38965 ft 476 kts 109°
2026-05-07 13:42 54.29282 -5.59543 38969 ft 476 kts 110°
2026-05-07 13:43 54.27309 -5.48720 38965 ft 476 kts 110°
2026-05-07 13:43 54.25328 -5.37914 38965 ft 476 kts 110°
2026-05-07 13:44 54.23337 -5.27123 38964 ft 476 kts 110°
2026-05-07 13:44 54.21336 -5.16336 38970 ft 476 kts 110°
2026-05-07 13:45 54.19328 -5.05572 38973 ft 475 kts 110°
2026-05-07 13:45 54.17321 -4.94880 38973 ft 476 kts 110°
2026-05-07 13:46 54.15294 -4.84138 38976 ft 475 kts 110°
2026-05-07 13:46 54.13259 -4.73418 38973 ft 475 kts 110°
2026-05-07 13:47 54.11213 -4.62698 38995 ft 474 kts 110°
2026-05-07 13:47 54.09160 -4.52001 38995 ft 474 kts 110°
2026-05-07 13:48 54.07100 -4.41332 38994 ft 474 kts 110°
2026-05-07 13:48 54.05045 -4.30743 38995 ft 474 kts 110°
2026-05-07 13:49 54.02968 -4.20101 38985 ft 474 kts 110°
2026-05-07 13:49 54.00880 -4.09464 38998 ft 474 kts 110°
2026-05-07 13:50 53.98779 -3.98820 39003 ft 474 kts 110°
2026-05-07 13:50 53.96669 -3.88185 39004 ft 474 kts 110°
2026-05-07 13:51 53.94555 -3.77587 39015 ft 474 kts 110°
2026-05-07 13:51 53.92429 -3.66986 39003 ft 474 kts 110°
2026-05-07 13:52 53.90308 -3.56471 39015 ft 474 kts 110°
2026-05-07 13:52 53.88141 -3.45894 39020 ft 474 kts 111°
2026-05-07 13:53 53.85866 -3.35409 39022 ft 474 kts 112°
2026-05-07 13:53 53.83555 -3.24962 39022 ft 474 kts 112°
2026-05-07 13:54 53.81235 -3.14490 39021 ft 474 kts 112°
2026-05-07 13:54 53.78933 -3.04109 39020 ft 474 kts 112°
2026-05-07 13:55 53.76606 -2.93651 39021 ft 475 kts 112°
2026-05-07 13:55 53.74268 -2.83198 39020 ft 475 kts 112°
2026-05-07 13:56 53.71921 -2.72758 39031 ft 475 kts 112°
2026-05-07 13:56 53.69570 -2.62350 39028 ft 474 kts 112°
2026-05-07 13:57 53.67224 -2.52016 39028 ft 474 kts 113°
2026-05-07 13:57 53.64858 -2.41651 39028 ft 474 kts 112°
2026-05-07 13:58 53.62482 -2.31289 39028 ft 474 kts 113°
2026-05-07 13:58 53.60092 -2.20916 39029 ft 474 kts 113°
2026-05-07 13:59 53.57700 -2.10585 39029 ft 474 kts 113°
2026-05-07 13:59 53.55312 -2.00320 39031 ft 474 kts 113°
2026-05-07 14:00 53.52940 -1.89973 39034 ft 475 kts 109°
2026-05-07 14:00 53.50974 -1.79362 39039 ft 475 kts 108°
2026-05-07 14:01 53.49089 -1.68703 39038 ft 475 kts 108°
2026-05-07 14:01 53.47214 -1.58054 39039 ft 475 kts 108°
2026-05-07 14:02 53.45317 -1.47410 39039 ft 476 kts 108°
2026-05-07 14:02 53.43415 -1.36847 39045 ft 476 kts 108°
2026-05-07 14:03 53.41491 -1.26229 39045 ft 476 kts 108°
2026-05-07 14:03 53.39557 -1.15590 39050 ft 476 kts 108°
2026-05-07 14:04 53.37617 -1.04992 39051 ft 476 kts 108°
2026-05-07 14:04 53.35669 -0.94411 39056 ft 476 kts 108°
2026-05-07 14:05 53.33708 -0.83815 39051 ft 476 kts 108°
2026-05-07 14:05 53.31752 -0.73310 39051 ft 476 kts 108°
2026-05-07 14:06 53.29775 -0.62751 39049 ft 476 kts 109°
2026-05-07 14:06 53.27783 -0.52169 39047 ft 476 kts 109°
2026-05-07 14:07 53.25800 -0.41689 39050 ft 476 kts 109°
2026-05-07 14:07 53.23794 -0.31150 39048 ft 476 kts 109°
2026-05-07 14:08 53.21778 -0.20623 39074 ft 476 kts 109°
2026-05-07 14:08 53.19753 -0.10105 39075 ft 476 kts 109°
2026-05-07 14:09 53.17717 0.00412 39050 ft 476 kts 109°
2026-05-07 14:09 53.15670 0.10929 39062 ft 476 kts 109°
2026-05-07 14:10 53.13629 0.21356 39071 ft 476 kts 109°
2026-05-07 14:10 53.11556 0.31894 39071 ft 476 kts 109°
2026-05-07 14:11 53.09497 0.42301 39074 ft 476 kts 110°
2026-05-07 14:11 53.07416 0.52763 39070 ft 476 kts 110°
2026-05-07 14:12 53.05324 0.63226 39073 ft 476 kts 110°
2026-05-07 14:12 53.03225 0.73665 39076 ft 476 kts 110°
2026-05-07 14:13 53.01112 0.84122 39083 ft 476 kts 110°
2026-05-07 14:13 52.99007 0.94483 39080 ft 477 kts 110°
2026-05-07 14:14 52.96826 1.04884 39082 ft 477 kts 111°
2026-05-07 14:14 52.94504 1.15181 39086 ft 477 kts 112°
2026-05-07 14:15 52.92144 1.25465 39091 ft 477 kts 112°
2026-05-07 14:15 52.90184 1.34014 39089 ft 477 kts 112°
2026-05-07 14:16 52.87828 1.44294 39093 ft 477 kts 112°
2026-05-07 14:16 52.85470 1.54554 39096 ft 477 kts 112°
2026-05-07 14:17 52.83114 1.64758 39104 ft 477 kts 112°
2026-05-07 14:17 52.80736 1.75004 39102 ft 477 kts 112°
2026-05-07 14:18 52.78350 1.85233 39100 ft 477 kts 112°
2026-05-07 14:18 52.75956 1.95449 39102 ft 477 kts 112°
2026-05-07 14:19 52.73550 2.05668 39097 ft 477 kts 112°
2026-05-07 14:19 52.71150 2.15811 39099 ft 477 kts 112°
2026-05-07 14:20 52.68720 2.26035 39103 ft 477 kts 112°
2026-05-07 14:20 52.66282 2.36241 39101 ft 477 kts 113°
2026-05-07 14:21 52.63856 2.46353 39099 ft 477 kts 113°
2026-05-07 14:21 52.61404 2.56521 39098 ft 477 kts 113°
2026-05-07 14:22 52.58945 2.66671 39104 ft 477 kts 113°
2026-05-07 14:22 52.56475 2.76820 39102 ft 477 kts 113°
2026-05-07 14:23 52.53967 2.86921 39101 ft 477 kts 114°
2026-05-07 14:23 52.51277 2.96909 39099 ft 477 kts 115°
2026-05-07 14:24 52.48555 3.06762 39099 ft 477 kts 115°
2026-05-07 14:24 52.45815 3.16702 39105 ft 478 kts 115°
2026-05-07 14:25 52.43078 3.26636 39090 ft 478 kts 115°
2026-05-07 14:25 52.40336 3.36556 39105 ft 478 kts 116°
2026-05-07 14:26 52.37585 3.46470 39104 ft 478 kts 116°
2026-05-07 14:26 52.34823 3.56383 39098 ft 478 kts 116°
2026-05-07 14:27 52.32072 3.66216 39081 ft 479 kts 116°
2026-05-07 14:27 52.29289 3.76125 39093 ft 479 kts 116°
2026-05-07 14:28 52.26504 3.85997 39094 ft 478 kts 116°
2026-05-07 14:28 52.23708 3.95865 39089 ft 478 kts 116°
2026-05-07 14:29 52.20905 4.05718 39080 ft 479 kts 116°
2026-05-07 14:29 52.18090 4.15573 39078 ft 480 kts 116°
2026-05-07 14:30 52.15280 4.25369 39080 ft 480 kts 116°
2026-05-07 14:30 52.12442 4.35219 39076 ft 480 kts 116°
2026-05-07 14:31 52.09601 4.45041 39073 ft 480 kts 116°
2026-05-07 14:31 52.06764 4.54809 39067 ft 480 kts 117°
2026-05-07 14:32 52.03914 4.64628 39066 ft 480 kts 114°
2026-05-07 14:32 52.02006 4.74965 39070 ft 477 kts 103°
2026-05-07 14:33 52.00700 4.85527 39067 ft 476 kts 102°
2026-05-07 14:33 51.99411 4.96082 39067 ft 477 kts 102°
2026-05-07 14:34 51.98113 5.06657 39066 ft 477 kts 102°
2026-05-07 14:34 51.96822 5.17137 39064 ft 477 kts 102°
2026-05-07 14:35 51.95520 5.27679 39063 ft 477 kts 102°
2026-05-07 14:35 51.94214 5.38222 39061 ft 477 kts 103°
2026-05-07 14:36 51.92909 5.48764 39058 ft 477 kts 102°
2026-05-07 14:36 51.91599 5.59313 39061 ft 477 kts 103°
2026-05-07 14:37 51.90284 5.69863 39052 ft 477 kts 103°
2026-05-07 14:37 51.88316 5.85612 39042 ft 477 kts 102°
2026-05-07 14:38 51.86984 5.96142 39047 ft 477 kts 103°
2026-05-07 14:38 51.85645 6.06669 39044 ft 477 kts 103°
2026-05-07 14:39 51.84305 6.17175 39044 ft 477 kts 103°
2026-05-07 14:39 51.82503 6.27389 39048 ft 475 kts 115°
2026-05-07 14:40 51.78980 6.36307 39039 ft 470 kts 134°
2026-05-07 14:40 51.74311 6.43681 39043 ft 470 kts 138°
2026-05-07 14:41 51.69531 6.50925 39045 ft 471 kts 138°
2026-05-07 14:41 51.64764 6.58146 39042 ft 471 kts 138°
2026-05-07 14:42 51.59989 6.65367 39041 ft 471 kts 138°
2026-05-07 14:42 51.55217 6.72568 38821 ft 470 kts 138°
2026-05-07 14:43 51.52827 6.76165 38159 ft 471 kts 138°
2026-05-07 14:43 51.50426 6.79774 37485 ft 471 kts 138°
2026-05-07 14:43 51.48064 6.83320 36806 ft 473 kts 138°
2026-05-07 14:43 51.45660 6.86923 36113 ft 474 kts 138°
2026-05-07 14:44 51.43243 6.90539 35420 ft 475 kts 138°
2026-05-07 14:44 51.40829 6.94147 35022 ft 474 kts 138°
2026-05-07 14:44 51.38413 6.97752 34325 ft 476 kts 138°
2026-05-07 14:44 51.35977 7.01381 33421 ft 480 kts 138°
2026-05-07 14:45 51.33519 7.05037 32548 ft 482 kts 138°
2026-05-07 14:45 51.31058 7.08693 31709 ft 484 kts 138°
2026-05-07 14:45 51.28574 7.12345 30821 ft 486 kts 140°
2026-05-07 14:45 51.25875 7.15592 29834 ft 487 kts 149°
2026-05-07 14:46 51.22905 7.18163 29222 ft 481 kts 154°
2026-05-07 14:46 51.19961 7.20508 28706 ft 478 kts 155°
2026-05-07 14:46 51.16975 7.22858 28076 ft 479 kts 155°
2026-05-07 14:46 51.13988 7.25208 27491 ft 478 kts 155°
2026-05-07 14:47 51.11027 7.27566 26899 ft 472 kts 154°
2026-05-07 14:47 51.08130 7.29940 26306 ft 465 kts 154°
2026-05-07 14:47 51.05273 7.32294 25718 ft 459 kts 154°
2026-05-07 14:47 51.02457 7.34617 25209 ft 451 kts 154°
2026-05-07 14:48 50.99740 7.36860 24866 ft 429 kts 154°
2026-05-07 14:48 50.97158 7.38988 24473 ft 409 kts 154°
2026-05-07 14:48 50.94669 7.41035 23881 ft 397 kts 154°
2026-05-07 14:48 50.92236 7.43031 23088 ft 390 kts 154°
2026-05-07 14:49 50.89839 7.44993 22380 ft 387 kts 154°
2026-05-07 14:49 50.87456 7.46958 21852 ft 386 kts 152°
2026-05-07 14:49 50.85224 7.49349 21291 ft 389 kts 141°
2026-05-07 14:49 50.83354 7.52457 20757 ft 389 kts 130°
2026-05-07 14:50 50.81753 7.55803 20298 ft 385 kts 127°
2026-05-07 14:50 50.80150 7.59323 19341 ft 394 kts 126°
2026-05-07 14:50 50.78547 7.62895 18402 ft 403 kts 126°
2026-05-07 14:50 50.76925 7.66520 17581 ft 404 kts 126°
2026-05-07 14:51 50.75330 7.70083 16949 ft 400 kts 126°
2026-05-07 14:51 50.73726 7.73665 16325 ft 397 kts 126°
2026-05-07 14:51 50.72140 7.77200 15732 ft 393 kts 126°
2026-05-07 14:51 50.70562 7.80713 15055 ft 391 kts 126°
2026-05-07 14:52 50.68991 7.84207 14310 ft 392 kts 126°
2026-05-07 14:52 50.67405 7.87727 13483 ft 394 kts 126°
2026-05-07 14:52 50.65825 7.91232 12761 ft 390 kts 126°
2026-05-07 14:52 50.64252 7.94714 12073 ft 386 kts 125°
2026-05-07 14:53 50.62719 7.98103 11387 ft 383 kts 125°
2026-05-07 14:53 50.61176 8.01513 10680 ft 381 kts 125°
2026-05-07 14:53 50.59647 8.04885 10216 ft 377 kts 126°
2026-05-07 14:53 50.58123 8.08241 10067 ft 378 kts 126°
2026-05-07 14:54 50.56587 8.11621 10041 ft 381 kts 126°
2026-05-07 14:54 50.55043 8.15012 10041 ft 381 kts 126°
2026-05-07 14:54 50.53501 8.18396 10044 ft 381 kts 126°
2026-05-07 14:54 50.51957 8.21781 10049 ft 381 kts 126°
2026-05-07 14:55 50.50411 8.25165 10050 ft 381 kts 126°
2026-05-07 14:55 50.48859 8.28558 10052 ft 382 kts 126°
2026-05-07 14:55 50.47313 8.31934 10050 ft 381 kts 126°
2026-05-07 14:55 50.46285 8.34175 10051 ft 381 kts 126°
2026-05-07 14:56 50.44730 8.37562 10056 ft 380 kts 126°
2026-05-07 14:56 50.42683 8.42015 10053 ft 380 kts 126°
2026-05-07 14:56 50.41637 8.44289 10054 ft 380 kts 126°
2026-05-07 14:56 50.40090 8.47647 10053 ft 381 kts 126°
2026-05-07 14:57 50.38556 8.50971 10053 ft 381 kts 126°
2026-05-07 14:57 50.37005 8.54328 10054 ft 380 kts 126°
2026-05-07 14:57 50.35454 8.57681 10052 ft 380 kts 126°
2026-05-07 14:57 50.33904 8.61031 10053 ft 379 kts 126°
2026-05-07 14:58 50.32354 8.64373 9868 ft 376 kts 126°
2026-05-07 14:58 50.30824 8.67669 9032 ft 376 kts 126°
2026-05-07 14:58 50.29281 8.70988 8183 ft 376 kts 126°
2026-05-07 14:58 50.27750 8.74276 7519 ft 370 kts 126°
2026-05-07 14:59 50.26245 8.77506 6842 ft 365 kts 126°
2026-05-07 14:59 50.24754 8.80702 6139 ft 361 kts 126°
2026-05-07 14:59 50.23279 8.83857 5477 ft 357 kts 126°
2026-05-07 14:59 50.21840 8.86923 5153 ft 342 kts 126°
2026-05-07 15:00 50.20459 8.89857 4958 ft 327 kts 126°
2026-05-07 15:00 50.19277 8.92738 4728 ft 313 kts 115°
2026-05-07 15:00 50.18581 8.95868 4560 ft 299 kts 105°
2026-05-07 15:00 50.18043 8.98936 4413 ft 287 kts 108°
2026-05-07 15:01 50.17050 9.01540 4251 ft 276 kts 135°
2026-05-07 15:01 50.15450 9.02982 4073 ft 263 kts 169°
2026-05-07 15:01 50.13708 9.02746 4005 ft 246 kts 205°
2026-05-07 15:01 50.12422 9.01192 4009 ft 228 kts 237°
2026-05-07 15:02 50.11895 8.98926 4014 ft 224 kts 268°
2026-05-07 15:02 50.12042 8.96519 4000 ft 225 kts 282°
2026-05-07 15:02 50.12362 8.94127 3991 ft 225 kts 283°
2026-05-07 15:02 50.12290 8.91721 3993 ft 225 kts 250°
2026-05-07 15:03 50.11570 8.89661 4010 ft 207 kts 243°
2026-05-07 15:03 50.10949 8.87774 4004 ft 189 kts 248°
2026-05-07 15:03 50.10490 8.85933 4004 ft 178 kts 252°
2026-05-07 15:03 50.10067 8.84110 3901 ft 175 kts 253°
2026-05-07 15:04 50.09646 8.82332 3653 ft 175 kts 253°
2026-05-07 15:04 50.09227 8.80579 3400 ft 175 kts 253°
2026-05-07 15:04 50.08801 8.78791 3133 ft 175 kts 253°
2026-05-07 15:04 50.08379 8.77013 2899 ft 175 kts 251°
2026-05-07 15:05 50.07955 8.75234 2649 ft 176 kts 252°
2026-05-07 15:05 50.07534 8.73448 2417 ft 176 kts 253°
2026-05-07 15:05 50.07403 8.71587 2173 ft 173 kts 275°
2026-05-07 15:05 50.07309 8.69671 1890 ft 182 kts 257°
2026-05-07 15:06 50.06856 8.67883 1713 ft 172 kts 247°
2026-05-07 15:06 50.06374 8.66254 1489 ft 159 kts 246°
2026-05-07 15:06 50.05944 8.64733 1289 ft 149 kts 250°
2026-05-07 15:06 50.05607 8.63263 1083 ft 139 kts 252°
2026-05-07 15:07 50.05298 8.61895 834 ft 129 kts 249°
2026-05-07 15:07 50.04972 8.60611 677 ft 129 kts 247°
2026-05-07 15:07 50.04655 8.59280 510 ft 132 kts 249°
2026-05-07 15:07 50.04341 8.57987 377 ft 120 kts 251°
2026-05-07 15:08 50.04098 8.56954 371 ft 75 kts 250°
2026-05-07 15:08 50.03980 8.56458 366 ft 34 kts 249°
2026-05-07 15:08 50.03902 8.56118 362 ft 33 kts 255°
2026-05-07 15:08 50.03895 8.55769 362 ft 28 kts 278°
2026-05-07 15:09 50.03907 8.55659 361 ft 0 kts 279°
2026-05-07 15:09 50.03908 8.55641 360 ft 3 kts 279°
2026-05-07 15:09 50.03919 8.55608 360 ft 4 kts 313°
2026-05-07 15:09 50.03954 8.55613 362 ft 6 kts 37°
2026-05-07 15:10 50.03979 8.55673 359 ft 7 kts 63°
2026-05-07 15:10 50.04005 8.55772 361 ft 12 kts 69°
2026-05-07 15:10 50.04040 8.55913 360 ft 15 kts 69°
2026-05-07 15:10 50.04077 8.56071 360 ft 16 kts 70°
2026-05-07 15:11 50.04117 8.56242 363 ft 18 kts 70°
2026-05-07 15:11 50.04162 8.56429 364 ft 19 kts 70°
2026-05-07 15:11 50.04208 8.56624 364 ft 20 kts 70°
2026-05-07 15:11 50.04256 8.56821 369 ft 19 kts 69°
2026-05-07 15:12 50.04305 8.57027 372 ft 21 kts 70°
2026-05-07 15:12 50.04356 8.57244 372 ft 22 kts 70°
2026-05-07 15:12 50.04411 8.57477 370 ft 24 kts 70°
2026-05-07 15:12 50.04469 8.57717 371 ft 24 kts 69°
2026-05-07 15:13 50.04516 8.57911 373 ft 12 kts 69°
2026-05-07 15:13 50.04569 8.58017 371 ft 15 kts 15°
2026-05-07 15:13 50.04683 8.57975 370 ft 19 kts 340°
2026-05-07 15:13 50.04778 8.57921 365 ft 15 kts 340°
2026-05-07 15:14 50.04851 8.57824 363 ft 10 kts 295°
2026-05-07 15:14 50.04901 8.57765 368 ft 8 kts 356°
2026-05-07 15:14 50.04939 8.57783 365 ft 7 kts 20°
2026-05-07 15:14 50.04943 8.57786 366 ft 0 kts 20°